Time,TemperatureF,DewpointF,PressureIn,WindDirection,WindDirectionDegrees,WindSpeedMPH,WindSpeedGustMPH,Humidity,HourlyPrecipIn,Conditions,Clouds,dailyrainin,SoftwareType,DateUTC
2013-03-09 00:00:00,31.7,25.9,30.37,South,171,1.0,2.0,79,0.00,,---,0.00,VWS V14.00,2013-03-09 05:00:00,
2013-03-09 00:03:00,31.6,25.5,30.37,South,171,0.0,2.0,78,0.00,,---,0.00,VWS V14.00,2013-03-09 05:03:00,
2013-03-09 00:05:00,31.6,25.5,30.37,South,171,2.0,3.0,78,0.00,,---,0.00,VWS V14.00,2013-03-09 05:05:00,
2013-03-09 00:09:00,31.6,25.9,30.37,South,171,0.0,3.0,79,0.00,,---,0.00,VWS V14.00,2013-03-09 05:09:00,
2013-03-09 00:10:00,31.6,25.9,30.37,South,171,0.0,3.0,79,0.00,,---,0.00,VWS V14.00,2013-03-09 05:10:00,
2013-03-09 00:13:00,31.6,25.9,30.37,South,171,1.0,3.0,79,0.00,,---,0.00,VWS V14.00,2013-03-09 05:13:00,
2013-03-09 00:14:00,31.6,25.9,30.37,South,171,0.0,3.0,79,0.00,,---,0.00,VWS V14.00,2013-03-09 05:14:00,
2013-03-09 00:16:00,31.6,25.9,30.37,South,171,0.0,3.0,79,0.00,,---,0.00,VWS V14.00,2013-03-09 05:16:00,
2013-03-09 00:17:00,31.6,25.9,30.37,South,171,0.0,3.0,79,0.00,,---,0.00,VWS V14.00,2013-03-09 05:17:00,
2013-03-09 00:19:00,31.5,25.8,30.37,South,171,0.0,3.0,79,0.00,,---,0.00,VWS V14.00,2013-03-09 05:19:00,
2013-03-09 00:21:00,31.3,25.6,30.37,South,171,0.0,3.0,79,0.00,,---,0.00,VWS V14.00,2013-03-09 05:21:00,
2013-03-09 00:22:00,31.3,25.6,30.37,South,171,0.0,3.0,79,0.00,,---,0.00,VWS V14.00,2013-03-09 05:22:00,
2013-03-09 00:23:00,31.2,25.5,30.37,South,171,1.0,3.0,79,0.00,,---,0.00,VWS V14.00,2013-03-09 05:23:00,
2013-03-09 00:24:00,31.1,25.4,30.37,South,171,1.0,3.0,79,0.00,,---,0.00,VWS V14.00,2013-03-09 05:24:00,
2013-03-09 00:27:00,31.0,25.3,30.37,South,171,1.0,3.0,79,0.00,,---,0.00,VWS V14.00,2013-03-09 05:27:00,
2013-03-09 00:28:00,31.0,25.3,30.37,South,171,0.0,3.0,79,0.00,,---,0.00,VWS V14.00,2013-03-09 05:28:00,
2013-03-09 00:30:00,31.0,25.3,30.36,South,171,0.0,1.0,79,0.00,,---,0.00,VWS V14.00,2013-03-09 05:30:00,
2013-03-09 00:32:00,30.9,25.2,30.36,South,171,0.0,1.0,79,0.00,,---,0.00,VWS V14.00,2013-03-09 05:32:00,
2013-03-09 00:33:00,30.9,25.2,30.36,South,171,0.0,1.0,79,0.00,,---,0.00,VWS V14.00,2013-03-09 05:33:00,
2013-03-09 00:35:00,30.9,25.2,30.36,South,171,0.0,1.0,79,0.00,,---,0.00,VWS V14.00,2013-03-09 05:35:00,
2013-03-09 00:37:00,31.0,25.3,30.36,South,171,0.0,2.0,79,0.00,,---,0.00,VWS V14.00,2013-03-09 05:37:00,
2013-03-09 00:38:00,31.0,25.3,30.36,South,171,0.0,2.0,79,0.00,,---,0.00,VWS V14.00,2013-03-09 05:38:00,
2013-03-09 00:39:00,31.0,25.3,30.36,South,171,0.0,2.0,79,0.00,,---,0.00,VWS V14.00,2013-03-09 05:39:00,
2013-03-09 00:40:00,31.0,25.3,30.36,South,171,0.0,2.0,79,0.00,,---,0.00,VWS V14.00,2013-03-09 05:40:00,
2013-03-09 00:43:00,31.0,25.3,30.36,South,171,0.0,2.0,79,0.00,,---,0.00,VWS V14.00,2013-03-09 05:43:00,
2013-03-09 00:44:00,30.9,25.2,30.36,South,171,0.0,2.0,79,0.00,,---,0.00,VWS V14.00,2013-03-09 05:44:00,
2013-03-09 00:45:00,30.9,24.9,30.36,South,171,0.0,2.0,78,0.00,,---,0.00,VWS V14.00,2013-03-09 05:45:00,
2013-03-09 00:49:00,30.8,24.8,30.36,South,171,0.0,2.0,78,0.00,,---,0.00,VWS V14.00,2013-03-09 05:49:00,
2013-03-09 00:50:00,30.8,24.8,30.36,South,171,0.0,2.0,78,0.00,,---,0.00,VWS V14.00,2013-03-09 05:50:00,
2013-03-09 00:51:00,30.8,24.8,30.36,South,171,0.0,2.0,78,0.00,,---,0.00,VWS V14.00,2013-03-09 05:51:00,
2013-03-09 00:55:00,31.0,25.0,30.35,South,171,0.0,3.0,78,0.00,,---,0.00,VWS V14.00,2013-03-09 05:55:00,
2013-03-09 00:56:00,31.1,25.0,30.35,South,172,2.0,3.0,78,0.00,,---,0.00,VWS V14.00,2013-03-09 05:56:00,
2013-03-09 00:57:00,31.2,25.5,30.35,South,172,1.0,3.0,79,0.00,,---,0.00,VWS V14.00,2013-03-09 05:57:00,
2013-03-09 00:59:00,31.4,25.6,30.35,South,172,1.0,2.0,79,0.00,,---,0.00,VWS V14.00,2013-03-09 05:59:00,
2013-03-09 01:00:00,31.5,25.4,30.35,South,172,2.0,2.0,78,0.00,,---,0.00,VWS V14.00,2013-03-09 06:00:00,
2013-03-09 01:02:00,31.5,25.4,30.35,South,173,2.0,2.0,78,0.00,,---,0.00,VWS V14.00,2013-03-09 06:02:00,
2013-03-09 01:05:00,31.6,25.5,30.35,South,173,1.0,2.0,78,0.00,,---,0.00,VWS V14.00,2013-03-09 06:05:00,
2013-03-09 01:06:00,31.6,25.5,30.35,South,173,0.0,2.0,78,0.00,,---,0.00,VWS V14.00,2013-03-09 06:06:00,
2013-03-09 01:07:00,31.5,25.4,30.35,South,173,0.0,2.0,78,0.00,,---,0.00,VWS V14.00,2013-03-09 06:07:00,
2013-03-09 01:11:00,31.3,24.9,30.35,South,173,0.0,2.0,77,0.00,,---,0.00,VWS V14.00,2013-03-09 06:11:00,
2013-03-09 01:12:00,31.3,24.9,30.35,South,173,0.0,2.0,77,0.00,,---,0.00,VWS V14.00,2013-03-09 06:12:00,
2013-03-09 01:14:00,31.2,24.8,30.35,South,173,1.0,2.0,77,0.00,,---,0.00,VWS V14.00,2013-03-09 06:14:00,
2013-03-09 01:17:00,31.1,24.8,30.35,South,173,0.0,2.0,77,0.00,,---,0.00,VWS V14.00,2013-03-09 06:17:00,
2013-03-09 01:18:00,31.1,24.8,30.35,South,173,0.0,2.0,77,0.00,,---,0.00,VWS V14.00,2013-03-09 06:18:00,
2013-03-09 01:19:00,31.0,24.6,30.35,South,173,0.0,2.0,77,0.00,,---,0.00,VWS V14.00,2013-03-09 06:19:00,
2013-03-09 01:22:00,30.9,24.2,30.35,South,173,0.0,2.0,76,0.00,,---,0.00,VWS V14.00,2013-03-09 06:22:00,
2013-03-09 01:23:00,30.9,24.5,30.35,South,173,0.0,2.0,77,0.00,,---,0.00,VWS V14.00,2013-03-09 06:23:00,
2013-03-09 01:24:00,30.9,24.5,30.35,South,173,0.0,2.0,77,0.00,,---,0.00,VWS V14.00,2013-03-09 06:24:00,
2013-03-09 01:27:00,30.9,24.5,30.35,South,173,1.0,2.0,77,0.00,,---,0.00,VWS V14.00,2013-03-09 06:27:00,
2013-03-09 01:28:00,30.9,26.1,30.35,South,173,0.0,2.0,82,0.00,,---,0.00,VWS V14.00,2013-03-09 06:28:00,
2013-03-09 01:29:00,30.9,24.5,30.34,South,173,0.0,1.0,77,0.00,,---,0.00,VWS V14.00,2013-03-09 06:29:00,
2013-03-09 01:32:00,31.0,24.6,30.34,South,173,1.0,1.0,77,0.00,,---,0.00,VWS V14.00,2013-03-09 06:32:00,
2013-03-09 01:34:00,31.0,24.6,30.34,South,173,1.0,1.0,77,0.00,,---,0.00,VWS V14.00,2013-03-09 06:34:00,
2013-03-09 01:38:00,31.0,24.6,30.34,South,173,0.0,1.0,77,0.00,,---,0.00,VWS V14.00,2013-03-09 06:38:00,
2013-03-09 01:39:00,31.0,24.6,30.34,South,173,1.0,1.0,77,0.00,,---,0.00,VWS V14.00,2013-03-09 06:39:00,
2013-03-09 01:40:00,31.0,24.6,30.34,South,173,0.0,1.0,77,0.00,,---,0.00,VWS V14.00,2013-03-09 06:40:00,
2013-03-09 01:41:00,31.0,25.0,30.34,South,173,0.0,2.0,78,0.00,,---,0.00,VWS V14.00,2013-03-09 06:41:00,
2013-03-09 01:44:00,31.1,25.0,30.34,South,173,1.0,2.0,78,0.00,,---,0.00,VWS V14.00,2013-03-09 06:44:00,
2013-03-09 01:45:00,31.2,25.1,30.34,South,174,1.0,2.0,78,0.00,,---,0.00,VWS V14.00,2013-03-09 06:45:00,
2013-03-09 01:49:00,31.2,25.1,30.34,South,173,0.0,2.0,78,0.00,,---,0.00,VWS V14.00,2013-03-09 06:49:00,
2013-03-09 01:50:00,31.2,25.1,30.34,South,174,1.0,2.0,78,0.00,,---,0.00,VWS V14.00,2013-03-09 06:50:00,
2013-03-09 01:51:00,31.2,25.1,30.34,South,173,1.0,2.0,78,0.00,,---,0.00,VWS V14.00,2013-03-09 06:51:00,
2013-03-09 01:52:00,31.1,25.0,30.34,South,172,1.0,2.0,78,0.00,,---,0.00,VWS V14.00,2013-03-09 06:52:00,
2013-03-09 01:55:00,30.9,24.5,30.34,SSE,166,2.0,2.0,77,0.00,,---,0.00,VWS V14.00,2013-03-09 06:55:00,
2013-03-09 01:56:00,30.8,24.5,30.34,SSE,163,1.0,2.0,77,0.00,,---,0.00,VWS V14.00,2013-03-09 06:56:00,
2013-03-09 01:57:00,30.8,24.5,30.34,SSE,163,1.0,2.0,77,0.00,,---,0.00,VWS V14.00,2013-03-09 06:57:00,
2013-03-09 02:00:00,30.7,24.4,30.33,SSE,161,1.0,2.0,77,0.00,,---,0.00,VWS V14.00,2013-03-09 07:00:00,
2013-03-09 02:02:00,30.8,24.5,30.33,SSE,160,1.0,2.0,77,0.00,,---,0.00,VWS V14.00,2013-03-09 07:02:00,
2013-03-09 02:04:00,30.8,24.5,30.33,SSE,161,0.0,2.0,77,0.00,,---,0.00,VWS V14.00,2013-03-09 07:04:00,
2013-03-09 02:08:00,30.9,24.9,30.33,SSE,160,0.0,2.0,78,0.00,,---,0.00,VWS V14.00,2013-03-09 07:08:00,
2013-03-09 02:10:00,31.0,25.0,30.33,SSE,160,1.0,2.0,78,0.00,,---,0.00,VWS V14.00,2013-03-09 07:10:00,
2013-03-09 02:14:00,31.1,25.0,30.33,SSE,160,0.0,2.0,78,0.00,,---,0.00,VWS V14.00,2013-03-09 07:14:00,
2013-03-09 02:15:00,31.1,25.0,30.33,SSE,160,1.0,2.0,78,0.00,,---,0.00,VWS V14.00,2013-03-09 07:15:00,
2013-03-09 02:17:00,31.0,25.0,30.33,SSE,161,1.0,2.0,78,0.00,,---,0.00,VWS V14.00,2013-03-09 07:17:00,
2013-03-09 02:19:00,31.0,25.0,30.33,SSE,161,0.0,2.0,78,0.00,,---,0.00,VWS V14.00,2013-03-09 07:19:00,
2013-03-09 02:20:00,31.0,25.0,30.33,SSE,161,0.0,2.0,78,0.00,,---,0.00,VWS V14.00,2013-03-09 07:20:00,
2013-03-09 02:22:00,31.0,25.0,30.33,SSE,160,2.0,2.0,78,0.00,,---,0.00,VWS V14.00,2013-03-09 07:22:00,
2013-03-09 02:24:00,30.9,24.5,30.33,SSE,158,2.0,2.0,77,0.00,,---,0.00,VWS V14.00,2013-03-09 07:24:00,
2013-03-09 02:25:00,30.9,24.5,30.33,SSE,156,2.0,2.0,77,0.00,,---,0.00,VWS V14.00,2013-03-09 07:25:00,
2013-03-09 02:26:00,30.8,24.5,30.33,SSE,154,2.0,2.0,77,0.00,,---,0.00,VWS V14.00,2013-03-09 07:26:00,
2013-03-09 02:28:00,30.8,24.5,30.33,SSE,150,2.0,3.0,77,0.00,,---,0.00,VWS V14.00,2013-03-09 07:28:00,
2013-03-09 02:29:00,30.8,24.5,30.33,SSE,149,1.0,2.0,77,0.00,,---,0.00,VWS V14.00,2013-03-09 07:29:00,
2013-03-09 02:31:00,30.8,24.5,30.32,SSE,148,1.0,3.0,77,0.00,,---,0.00,VWS V14.00,2013-03-09 07:31:00,
2013-03-09 02:33:00,30.7,24.4,30.32,SE,146,1.0,3.0,77,0.00,,---,0.00,VWS V14.00,2013-03-09 07:33:00,
2013-03-09 02:36:00,30.7,24.4,30.32,SE,144,1.0,3.0,77,0.00,,---,0.00,VWS V14.00,2013-03-09 07:36:00,
2013-03-09 02:37:00,30.8,24.5,30.32,SE,144,1.0,3.0,77,0.00,,---,0.00,VWS V14.00,2013-03-09 07:37:00,
2013-03-09 02:38:00,30.7,24.4,30.32,SE,144,1.0,3.0,77,0.00,,---,0.00,VWS V14.00,2013-03-09 07:38:00,
2013-03-09 02:42:00,30.8,24.5,30.32,SE,143,2.0,3.0,77,0.00,,---,0.00,VWS V14.00,2013-03-09 07:42:00,
2013-03-09 02:43:00,30.7,24.0,30.32,SE,143,1.0,3.0,76,0.00,,---,0.00,VWS V14.00,2013-03-09 07:43:00,
2013-03-09 02:44:00,30.7,24.0,30.32,SE,143,2.0,3.0,76,0.00,,---,0.00,VWS V14.00,2013-03-09 07:44:00,
2013-03-09 02:47:00,30.7,24.4,30.32,SE,142,3.0,3.0,77,0.00,,---,0.00,VWS V14.00,2013-03-09 07:47:00,
2013-03-09 02:48:00,30.7,24.4,30.32,SE,142,1.0,3.0,77,0.00,,---,0.00,VWS V14.00,2013-03-09 07:48:00,
2013-03-09 02:49:00,30.6,24.3,30.32,SE,142,1.0,3.0,77,0.00,,---,0.00,VWS V14.00,2013-03-09 07:49:00,
2013-03-09 02:50:00,30.6,24.0,30.32,SE,142,1.0,3.0,76,0.00,,---,0.00,VWS V14.00,2013-03-09 07:50:00,
2013-03-09 02:52:00,30.6,24.3,30.31,SE,142,0.0,3.0,77,0.00,,---,0.00,VWS V14.00,2013-03-09 07:52:00,
2013-03-09 02:55:00,30.6,24.3,30.31,SE,142,1.0,3.0,77,0.00,,---,0.00,VWS V14.00,2013-03-09 07:55:00,
2013-03-09 02:57:00,30.6,24.3,30.31,SE,142,0.0,3.0,77,0.00,,---,0.00,VWS V14.00,2013-03-09 07:57:00,
2013-03-09 03:00:00,30.6,24.6,30.31,SE,142,0.0,1.0,78,0.00,,---,0.00,VWS V14.00,2013-03-09 08:00:00,
2013-03-09 03:01:00,30.6,24.6,30.31,SE,142,0.0,1.0,78,0.00,,---,0.00,VWS V14.00,2013-03-09 08:01:00,
2013-03-09 03:03:00,30.6,24.6,30.31,SE,142,0.0,1.0,78,0.00,,---,0.00,VWS V14.00,2013-03-09 08:03:00,
2013-03-09 03:06:00,30.7,25.0,30.31,SE,142,1.0,2.0,79,0.00,,---,0.00,VWS V14.00,2013-03-09 08:06:00,
2013-03-09 03:07:00,30.7,25.0,30.31,SE,142,0.0,2.0,79,0.00,,---,0.00,VWS V14.00,2013-03-09 08:07:00,
2013-03-09 03:08:00,30.7,25.0,30.31,SE,142,0.0,2.0,79,0.00,,---,0.00,VWS V14.00,2013-03-09 08:08:00,
2013-03-09 03:12:00,30.7,25.0,30.31,SE,143,1.0,2.0,79,0.00,,---,0.00,VWS V14.00,2013-03-09 08:12:00,
2013-03-09 03:13:00,30.6,24.9,30.31,SE,143,0.0,2.0,79,0.00,,---,0.00,VWS V14.00,2013-03-09 08:13:00,
2013-03-09 03:18:00,30.5,25.1,30.31,SE,142,0.0,2.0,80,0.00,,---,0.00,VWS V14.00,2013-03-09 08:18:00,
2013-03-09 03:19:00,30.5,25.1,30.31,SE,142,0.0,2.0,80,0.00,,---,0.00,VWS V14.00,2013-03-09 08:19:00,
2013-03-09 03:20:00,30.5,25.1,30.31,SE,142,0.0,2.0,80,0.00,,---,0.00,VWS V14.00,2013-03-09 08:20:00,
2013-03-09 03:24:00,30.4,25.3,30.30,SE,143,1.0,2.0,81,0.00,,---,0.00,VWS V14.00,2013-03-09 08:24:00,
2013-03-09 03:25:00,30.4,25.3,30.30,SE,143,0.0,2.0,81,0.00,,---,0.00,VWS V14.00,2013-03-09 08:25:00,
2013-03-09 03:26:00,30.3,25.2,30.30,SE,143,0.0,2.0,81,0.00,,---,0.00,VWS V14.00,2013-03-09 08:26:00,
2013-03-09 03:29:00,30.3,25.2,30.30,SE,144,1.0,2.0,81,0.00,,---,0.00,VWS V14.00,2013-03-09 08:29:00,
2013-03-09 03:30:00,30.3,25.2,30.30,SE,144,0.0,2.0,81,0.00,,---,0.00,VWS V14.00,2013-03-09 08:30:00,
2013-03-09 03:32:00,30.2,24.8,30.30,SSE,148,1.0,2.0,80,0.00,,---,0.00,VWS V14.00,2013-03-09 08:32:00,
2013-03-09 03:34:00,30.2,24.8,30.30,SSE,148,0.0,2.0,80,0.00,,---,0.00,VWS V14.00,2013-03-09 08:34:00,
2013-03-09 03:36:00,30.2,25.1,30.30,SSE,149,1.0,2.0,81,0.00,,---,0.00,VWS V14.00,2013-03-09 08:36:00,
2013-03-09 03:37:00,30.2,25.1,30.30,SSE,150,1.0,2.0,81,0.00,,---,0.00,VWS V14.00,2013-03-09 08:37:00,
2013-03-09 03:39:00,30.3,25.2,30.30,SSE,150,0.0,2.0,81,0.00,,---,0.00,VWS V14.00,2013-03-09 08:39:00,
2013-03-09 03:42:00,30.2,25.1,30.29,SSE,151,1.0,2.0,81,0.00,,---,0.00,VWS V14.00,2013-03-09 08:42:00,
2013-03-09 03:43:00,30.2,25.1,30.29,SSE,151,0.0,2.0,81,0.00,,---,0.00,VWS V14.00,2013-03-09 08:43:00,
2013-03-09 03:44:00,30.1,25.0,30.29,SSE,151,1.0,2.0,81,0.00,,---,0.00,VWS V14.00,2013-03-09 08:44:00,
2013-03-09 03:46:00,30.1,25.0,30.29,SSE,150,1.0,2.0,81,0.00,,---,0.00,VWS V14.00,2013-03-09 08:46:00,
2013-03-09 03:48:00,30.1,25.0,30.29,SSE,151,0.0,2.0,81,0.00,,---,0.00,VWS V14.00,2013-03-09 08:48:00,
2013-03-09 03:49:00,30.1,25.0,30.29,SSE,158,1.0,3.0,81,0.00,,---,0.00,VWS V14.00,2013-03-09 08:49:00,
2013-03-09 03:51:00,30.1,25.0,30.29,SSE,159,1.0,3.0,81,0.00,,---,0.00,VWS V14.00,2013-03-09 08:51:00,
2013-03-09 03:54:00,30.1,25.0,30.29,SSE,159,1.0,3.0,81,0.00,,---,0.00,VWS V14.00,2013-03-09 08:54:00,
2013-03-09 03:56:00,30.1,25.0,30.29,SSE,159,0.0,3.0,81,0.00,,---,0.00,VWS V14.00,2013-03-09 08:56:00,
2013-03-09 03:57:00,30.0,24.9,30.29,SSE,160,1.0,3.0,81,0.00,,---,0.00,VWS V14.00,2013-03-09 08:57:00,
2013-03-09 03:59:00,30.0,25.2,30.29,SSE,159,0.0,0.0,82,0.00,,---,0.00,VWS V14.00,2013-03-09 08:59:00,
2013-03-09 04:00:00,30.0,25.2,30.29,SSE,160,2.0,2.0,82,0.00,,---,0.00,VWS V14.00,2013-03-09 09:00:00,
2013-03-09 04:01:00,30.0,25.2,30.29,SSE,160,0.0,2.0,82,0.00,,---,0.00,VWS V14.00,2013-03-09 09:01:00,
2013-03-09 04:02:00,30.0,25.2,30.29,SSE,161,1.0,2.0,82,0.00,,---,0.00,VWS V14.00,2013-03-09 09:02:00,
2013-03-09 04:05:00,30.1,25.3,30.29,SSE,162,1.0,3.0,82,0.00,,---,0.00,VWS V14.00,2013-03-09 09:05:00,
2013-03-09 04:06:00,30.1,25.3,30.29,SSE,163,1.0,3.0,82,0.00,,---,0.00,VWS V14.00,2013-03-09 09:06:00,
2013-03-09 04:07:00,30.1,25.3,30.29,SSE,164,1.0,3.0,82,0.00,,---,0.00,VWS V14.00,2013-03-09 09:07:00,
2013-03-09 04:08:00,30.2,25.4,30.29,SSE,166,1.0,3.0,82,0.00,,---,0.00,VWS V14.00,2013-03-09 09:08:00,
2013-03-09 04:11:00,30.2,25.4,30.29,SSE,168,2.0,3.0,82,0.00,,---,0.00,VWS V14.00,2013-03-09 09:11:00,
2013-03-09 04:12:00,30.3,25.5,30.29,South,169,2.0,3.0,82,0.00,,---,0.00,VWS V14.00,2013-03-09 09:12:00,
2013-03-09 04:13:00,30.3,25.5,30.30,South,172,1.0,3.0,82,0.00,,---,0.00,VWS V14.00,2013-03-09 09:13:00,
2013-03-09 04:17:00,30.3,25.5,30.30,South,174,2.0,3.0,82,0.00,,---,0.00,VWS V14.00,2013-03-09 09:17:00,
2013-03-09 04:18:00,30.2,25.4,30.30,South,174,0.0,3.0,82,0.00,,---,0.00,VWS V14.00,2013-03-09 09:18:00,
2013-03-09 04:19:00,30.2,25.4,30.30,South,174,0.0,3.0,82,0.00,,---,0.00,VWS V14.00,2013-03-09 09:19:00,
2013-03-09 04:22:00,30.0,24.9,30.30,South,173,0.0,3.0,81,0.00,,---,0.00,VWS V14.00,2013-03-09 09:22:00,
2013-03-09 04:24:00,29.8,24.7,30.30,South,173,1.0,3.0,81,0.00,,---,0.00,VWS V14.00,2013-03-09 09:24:00,
2013-03-09 04:25:00,29.8,24.7,30.30,South,173,0.0,3.0,81,0.00,,---,0.00,VWS V14.00,2013-03-09 09:25:00,
2013-03-09 04:27:00,29.7,24.6,30.30,South,172,0.0,3.0,81,0.00,,---,0.00,VWS V14.00,2013-03-09 09:27:00,
2013-03-09 04:29:00,29.6,24.5,30.29,South,172,0.0,1.0,81,0.00,,---,0.00,VWS V14.00,2013-03-09 09:29:00,
2013-03-09 04:30:00,29.6,24.5,30.29,South,172,1.0,1.0,81,0.00,,---,0.00,VWS V14.00,2013-03-09 09:30:00,
2013-03-09 04:32:00,29.6,24.8,30.29,South,171,0.0,2.0,82,0.00,,---,0.00,VWS V14.00,2013-03-09 09:32:00,
2013-03-09 04:33:00,29.6,24.8,30.29,SSE,163,3.0,3.0,82,0.00,,---,0.00,VWS V14.00,2013-03-09 09:33:00,
2013-03-09 04:35:00,29.6,24.5,30.29,SSE,159,2.0,3.0,81,0.00,,---,0.00,VWS V14.00,2013-03-09 09:35:00,
2013-03-09 04:38:00,29.6,24.8,30.28,SSE,155,1.0,3.0,82,0.00,,---,0.00,VWS V14.00,2013-03-09 09:38:00,
2013-03-09 04:40:00,29.8,25.0,30.28,SSE,155,1.0,3.0,82,0.00,,---,0.00,VWS V14.00,2013-03-09 09:40:00,
2013-03-09 04:41:00,29.8,25.0,30.28,SSE,155,2.0,3.0,82,0.00,,---,0.00,VWS V14.00,2013-03-09 09:41:00,
2013-03-09 04:43:00,30.0,25.2,30.28,SSE,155,1.0,3.0,82,0.00,,---,0.00,VWS V14.00,2013-03-09 09:43:00,
2013-03-09 04:45:00,30.2,25.7,30.28,SSE,156,0.0,3.0,83,0.00,,---,0.00,VWS V14.00,2013-03-09 09:45:00,
2013-03-09 04:46:00,30.2,25.7,30.29,SSE,156,0.0,3.0,83,0.00,,---,0.00,VWS V14.00,2013-03-09 09:46:00,
2013-03-09 04:48:00,30.3,25.8,30.28,SSE,156,0.0,3.0,83,0.00,,---,0.00,VWS V14.00,2013-03-09 09:48:00,
2013-03-09 04:52:00,30.5,26.2,30.28,SSE,156,0.0,3.0,84,0.00,,---,0.00,VWS V14.00,2013-03-09 09:52:00,
2013-03-09 04:53:00,30.5,26.2,30.28,SSE,156,0.0,3.0,84,0.00,,---,0.00,VWS V14.00,2013-03-09 09:53:00,
2013-03-09 04:54:00,30.6,26.4,30.28,SSE,161,0.0,4.0,84,0.00,,---,0.00,VWS V14.00,2013-03-09 09:54:00,
2013-03-09 04:57:00,30.6,26.4,30.28,SSE,161,1.0,4.0,84,0.00,,---,0.00,VWS V14.00,2013-03-09 09:57:00,
2013-03-09 04:59:00,30.7,26.5,30.28,SSE,161,1.0,2.0,84,0.00,,---,0.00,VWS V14.00,2013-03-09 09:59:00,
2013-03-09 05:01:00,30.6,26.1,30.29,SSE,161,1.0,2.0,83,0.00,,---,0.00,VWS V14.00,2013-03-09 10:01:00,
2013-03-09 05:02:00,30.6,26.1,30.28,SSE,161,0.0,2.0,83,0.00,,---,0.00,VWS V14.00,2013-03-09 10:02:00,
2013-03-09 05:04:00,30.6,26.1,30.29,SSE,161,0.0,2.0,83,0.00,,---,0.00,VWS V14.00,2013-03-09 10:04:00,
2013-03-09 05:05:00,30.6,26.1,30.29,SSE,161,0.0,2.0,83,0.00,,---,0.00,VWS V14.00,2013-03-09 10:05:00,
2013-03-09 05:07:00,30.6,26.1,30.29,SSE,161,1.0,2.0,83,0.00,,---,0.00,VWS V14.00,2013-03-09 10:07:00,
2013-03-09 05:08:00,30.5,26.0,30.29,SSE,161,0.0,2.0,83,0.00,,---,0.00,VWS V14.00,2013-03-09 10:08:00,
2013-03-09 05:10:00,30.4,25.9,30.29,SSE,161,0.0,2.0,83,0.00,,---,0.00,VWS V14.00,2013-03-09 10:10:00,
2013-03-09 05:12:00,30.4,25.9,30.29,SSE,161,1.0,2.0,83,0.00,,---,0.00,VWS V14.00,2013-03-09 10:12:00,
2013-03-09 05:13:00,30.4,25.9,30.29,SSE,161,0.0,2.0,83,0.00,,---,0.00,VWS V14.00,2013-03-09 10:13:00,
2013-03-09 05:15:00,30.3,25.8,30.29,SSE,162,1.0,2.0,83,0.00,,---,0.00,VWS V14.00,2013-03-09 10:15:00,
2013-03-09 05:17:00,30.3,25.8,30.29,SSE,161,0.0,2.0,83,0.00,,---,0.00,VWS V14.00,2013-03-09 10:17:00,
2013-03-09 05:19:00,30.3,25.8,30.29,SSE,161,0.0,2.0,83,0.00,,---,0.00,VWS V14.00,2013-03-09 10:19:00,
2013-03-09 05:21:00,30.3,25.8,30.28,SSE,161,1.0,2.0,83,0.00,,---,0.00,VWS V14.00,2013-03-09 10:21:00,
2013-03-09 05:22:00,30.4,25.9,30.28,SSE,161,1.0,2.0,83,0.00,,---,0.00,VWS V14.00,2013-03-09 10:22:00,
2013-03-09 05:24:00,30.4,25.9,30.28,SSE,161,1.0,2.0,83,0.00,,---,0.00,VWS V14.00,2013-03-09 10:24:00,
2013-03-09 05:27:00,30.4,25.9,30.28,SSE,161,0.0,2.0,83,0.00,,---,0.00,VWS V14.00,2013-03-09 10:27:00,
2013-03-09 05:28:00,30.3,25.8,30.28,SSE,161,2.0,2.0,83,0.00,,---,0.00,VWS V14.00,2013-03-09 10:28:00,
2013-03-09 05:30:00,30.3,25.8,30.28,SSE,161,0.0,2.0,83,0.00,,---,0.00,VWS V14.00,2013-03-09 10:30:00,
2013-03-09 05:33:00,30.3,25.8,30.28,SSE,156,3.0,4.0,83,0.00,,---,0.00,VWS V14.00,2013-03-09 10:33:00,
2013-03-09 05:34:00,30.3,25.8,30.28,SSE,156,1.0,4.0,83,0.00,,---,0.00,VWS V14.00,2013-03-09 10:34:00,
2013-03-09 05:35:00,30.4,25.9,30.28,SSE,157,1.0,4.0,83,0.00,,---,0.00,VWS V14.00,2013-03-09 10:35:00,
2013-03-09 05:38:00,30.4,25.9,30.29,SSE,157,0.0,4.0,83,0.00,,---,0.00,VWS V14.00,2013-03-09 10:38:00,
2013-03-09 05:39:00,30.4,25.9,30.29,SSE,157,1.0,4.0,83,0.00,,---,0.00,VWS V14.00,2013-03-09 10:39:00,
2013-03-09 05:40:00,30.4,25.9,30.29,SSE,157,2.0,4.0,83,0.00,,---,0.00,VWS V14.00,2013-03-09 10:40:00,
2013-03-09 05:43:00,30.4,25.9,30.29,SSE,156,1.0,4.0,83,0.00,,---,0.00,VWS V14.00,2013-03-09 10:43:00,
2013-03-09 05:45:00,30.4,25.9,30.29,SSE,155,2.0,4.0,83,0.00,,---,0.00,VWS V14.00,2013-03-09 10:45:00,
2013-03-09 05:46:00,30.4,25.9,30.29,SSE,155,2.0,4.0,83,0.00,,---,0.00,VWS V14.00,2013-03-09 10:46:00,
2013-03-09 05:47:00,30.5,26.0,30.28,SSE,152,1.0,4.0,83,0.00,,---,0.00,VWS V14.00,2013-03-09 10:47:00,
2013-03-09 05:48:00,30.5,26.0,30.29,SSE,152,1.0,4.0,83,0.00,,---,0.00,VWS V14.00,2013-03-09 10:48:00,
2013-03-09 05:51:00,30.5,26.0,30.28,SSE,152,0.0,4.0,83,0.00,,---,0.00,VWS V14.00,2013-03-09 10:51:00,
2013-03-09 05:53:00,30.6,26.1,30.28,SSE,152,1.0,4.0,83,0.00,,---,0.00,VWS V14.00,2013-03-09 10:53:00,
2013-03-09 05:54:00,30.6,26.1,30.28,SSE,153,1.0,4.0,83,0.00,,---,0.00,VWS V14.00,2013-03-09 10:54:00,
2013-03-09 05:55:00,30.7,26.2,30.28,SSE,154,0.0,4.0,83,0.00,,---,0.00,VWS V14.00,2013-03-09 10:55:00,
2013-03-09 05:56:00,30.7,26.2,30.28,SSE,153,0.0,4.0,83,0.00,,---,0.00,VWS V14.00,2013-03-09 10:56:00,
2013-03-09 05:58:00,30.9,26.6,30.28,SSE,153,2.0,2.0,84,0.00,,---,0.00,VWS V14.00,2013-03-09 10:58:00,
2013-03-09 05:59:00,30.9,26.6,30.28,SSE,153,1.0,2.0,84,0.00,,---,0.00,VWS V14.00,2013-03-09 10:59:00,
2013-03-09 06:01:00,30.9,26.4,30.28,SSE,153,0.0,3.0,83,0.00,,---,0.00,VWS V14.00,2013-03-09 11:01:00,
2013-03-09 06:03:00,30.9,26.4,30.28,SSE,150,2.0,3.0,83,0.00,,---,0.00,VWS V14.00,2013-03-09 11:03:00,
2013-03-09 06:04:00,30.8,26.3,30.27,SSE,148,3.0,3.0,83,0.00,,---,0.00,VWS V14.00,2013-03-09 11:04:00,
2013-03-09 06:05:00,30.8,26.3,30.27,SE,146,3.0,4.0,83,0.00,,---,0.00,VWS V14.00,2013-03-09 11:05:00,
2013-03-09 06:08:00,30.8,26.0,30.28,SE,145,3.0,4.0,82,0.00,,---,0.00,VWS V14.00,2013-03-09 11:08:00,
2013-03-09 06:09:00,30.8,26.0,30.28,SE,145,0.0,4.0,82,0.00,,---,0.00,VWS V14.00,2013-03-09 11:09:00,
2013-03-09 06:10:00,30.9,26.4,30.27,SE,144,1.0,4.0,83,0.00,,---,0.00,VWS V14.00,2013-03-09 11:10:00,
2013-03-09 06:13:00,31.1,26.5,30.28,SE,145,1.0,4.0,83,0.00,,---,0.00,VWS V14.00,2013-03-09 11:13:00,
2013-03-09 06:14:00,31.1,26.5,30.28,SE,145,1.0,4.0,83,0.00,,---,0.00,VWS V14.00,2013-03-09 11:14:00,
2013-03-09 06:15:00,31.2,26.6,30.28,SE,145,0.0,4.0,83,0.00,,---,0.00,VWS V14.00,2013-03-09 11:15:00,
2013-03-09 06:17:00,31.3,26.8,30.28,SE,145,0.0,4.0,83,0.00,,---,0.00,VWS V14.00,2013-03-09 11:17:00,
2013-03-09 06:19:00,31.4,26.8,30.27,SE,146,0.0,4.0,83,0.00,,---,0.00,VWS V14.00,2013-03-09 11:19:00,
2013-03-09 06:21:00,31.4,26.8,30.27,SE,146,0.0,4.0,83,0.00,,---,0.00,VWS V14.00,2013-03-09 11:21:00,
2013-03-09 06:22:00,31.4,26.8,30.27,SSE,158,0.0,4.0,83,0.00,,---,0.00,VWS V14.00,2013-03-09 11:22:00,
2013-03-09 06:26:00,31.5,26.9,30.28,SSE,155,1.0,4.0,83,0.00,,---,0.00,VWS V14.00,2013-03-09 11:26:00,
2013-03-09 06:27:00,31.5,26.9,30.28,SSE,155,1.0,4.0,83,0.00,,---,0.00,VWS V14.00,2013-03-09 11:27:00,
2013-03-09 06:29:00,31.5,26.9,30.28,SSE,155,0.0,1.0,83,0.00,,---,0.00,VWS V14.00,2013-03-09 11:29:00,
2013-03-09 06:32:00,31.5,27.2,30.28,SSE,155,1.0,2.0,84,0.00,,---,0.00,VWS V14.00,2013-03-09 11:32:00,
2013-03-09 06:34:00,31.6,27.3,30.28,SSE,155,0.0,2.0,84,0.00,,---,0.00,VWS V14.00,2013-03-09 11:34:00,
2013-03-09 06:35:00,31.6,27.3,30.28,SSE,155,1.0,2.0,84,0.00,,---,0.00,VWS V14.00,2013-03-09 11:35:00,
2013-03-09 06:36:00,31.6,27.3,30.28,SSE,155,1.0,2.0,84,0.00,,---,0.00,VWS V14.00,2013-03-09 11:36:00,
2013-03-09 06:38:00,31.6,27.3,30.28,SSE,155,1.0,2.0,84,0.00,,---,0.00,VWS V14.00,2013-03-09 11:38:00,
2013-03-09 06:39:00,31.5,27.2,30.28,SSE,155,0.0,2.0,84,0.00,,---,0.00,VWS V14.00,2013-03-09 11:39:00,
2013-03-09 06:40:00,31.5,27.2,30.28,SSE,155,0.0,2.0,84,0.00,,---,0.00,VWS V14.00,2013-03-09 11:40:00,
2013-03-09 06:41:00,31.5,27.2,30.28,SSE,155,1.0,2.0,84,0.00,,---,0.00,VWS V14.00,2013-03-09 11:41:00,
2013-03-09 06:43:00,31.4,26.8,30.28,SSE,152,2.0,2.0,83,0.00,,---,0.00,VWS V14.00,2013-03-09 11:43:00,
2013-03-09 06:46:00,31.4,26.8,30.28,SSE,152,0.0,2.0,83,0.00,,---,0.00,VWS V14.00,2013-03-09 11:46:00,
2013-03-09 06:47:00,31.4,26.8,30.28,SSE,152,3.0,3.0,83,0.00,,---,0.00,VWS V14.00,2013-03-09 11:47:00,
2013-03-09 06:48:00,31.3,26.8,30.28,SSE,152,0.0,3.0,83,0.00,,---,0.00,VWS V14.00,2013-03-09 11:48:00,
2013-03-09 06:51:00,31.4,26.8,30.27,SSE,152,1.0,3.0,83,0.00,,---,0.00,VWS V14.00,2013-03-09 11:51:00,
2013-03-09 06:52:00,31.5,26.9,30.27,SSE,152,1.0,3.0,83,0.00,,---,0.00,VWS V14.00,2013-03-09 11:52:00,
2013-03-09 06:54:00,31.6,27.3,30.27,SSE,152,1.0,3.0,84,0.00,,---,0.00,VWS V14.00,2013-03-09 11:54:00,
2013-03-09 06:56:00,31.8,27.5,30.28,SSE,152,1.0,3.0,84,0.00,,---,0.00,VWS V14.00,2013-03-09 11:56:00,
2013-03-09 06:57:00,31.8,27.5,30.28,SSE,152,2.0,3.0,84,0.00,,---,0.00,VWS V14.00,2013-03-09 11:57:00,
2013-03-09 06:59:00,31.9,27.6,30.28,SSE,153,2.0,2.0,84,0.00,,---,0.00,VWS V14.00,2013-03-09 11:59:00,
2013-03-09 07:02:00,31.9,27.6,30.28,SSE,153,1.0,4.0,84,0.00,,---,0.00,VWS V14.00,2013-03-09 12:02:00,
2013-03-09 07:03:00,31.9,27.6,30.28,SSE,150,1.0,4.0,84,0.00,,---,0.00,VWS V14.00,2013-03-09 12:03:00,
2013-03-09 07:07:00,32.1,27.8,30.28,SSE,151,2.0,4.0,84,0.00,,---,0.00,VWS V14.00,2013-03-09 12:07:00,
2013-03-09 07:08:00,32.1,27.8,30.28,SSE,152,1.0,4.0,84,0.00,,---,0.00,VWS V14.00,2013-03-09 12:08:00,
2013-03-09 07:09:00,32.2,28.2,30.28,SSE,150,2.0,4.0,85,0.00,,---,0.00,VWS V14.00,2013-03-09 12:09:00,
2013-03-09 07:13:00,32.1,27.8,30.27,SE,146,0.0,5.0,84,0.00,,---,0.00,VWS V14.00,2013-03-09 12:13:00,
2013-03-09 07:16:00,32.1,27.5,30.27,SSE,150,2.0,6.0,83,0.00,,---,0.00,VWS V14.00,2013-03-09 12:16:00,
2013-03-09 07:17:00,32.2,27.6,30.28,South,169,1.0,6.0,83,0.00,,---,0.00,VWS V14.00,2013-03-09 12:17:00,
2013-03-09 07:19:00,32.4,27.8,30.28,South,182,1.0,6.0,83,0.00,,---,0.00,VWS V14.00,2013-03-09 12:19:00,
2013-03-09 07:22:00,32.5,27.9,30.28,South,188,1.0,6.0,83,0.00,,---,0.00,VWS V14.00,2013-03-09 12:22:00,
2013-03-09 07:23:00,32.5,27.9,30.28,South,188,3.0,6.0,83,0.00,,---,0.00,VWS V14.00,2013-03-09 12:23:00,
2013-03-09 07:24:00,32.6,28.0,30.28,South,176,1.0,6.0,83,0.00,,---,0.00,VWS V14.00,2013-03-09 12:24:00,
2013-03-09 07:27:00,32.6,28.0,30.29,South,175,1.0,6.0,83,0.00,,---,0.00,VWS V14.00,2013-03-09 12:27:00,
2013-03-09 07:28:00,32.6,28.0,30.29,South,175,0.0,6.0,83,0.00,,---,0.00,VWS V14.00,2013-03-09 12:28:00,
2013-03-09 07:30:00,32.6,28.0,30.28,South,172,2.0,3.0,83,0.00,,---,0.00,VWS V14.00,2013-03-09 12:30:00,
2013-03-09 07:33:00,32.6,28.0,30.29,South,172,1.0,3.0,83,0.00,,---,0.00,VWS V14.00,2013-03-09 12:33:00,
2013-03-09 07:34:00,32.7,28.1,30.29,South,173,1.0,3.0,83,0.00,,---,0.00,VWS V14.00,2013-03-09 12:34:00,
2013-03-09 07:35:00,32.7,28.1,30.29,South,173,2.0,3.0,83,0.00,,---,0.00,VWS V14.00,2013-03-09 12:35:00,
2013-03-09 07:39:00,32.8,28.5,30.28,South,176,1.0,3.0,84,0.00,,---,0.00,VWS V14.00,2013-03-09 12:39:00,
2013-03-09 07:40:00,32.8,28.2,30.28,South,176,2.0,3.0,83,0.00,,---,0.00,VWS V14.00,2013-03-09 12:40:00,
2013-03-09 07:42:00,32.9,28.3,30.28,SSE,149,3.0,5.0,83,0.00,,---,0.00,VWS V14.00,2013-03-09 12:42:00,
2013-03-09 07:45:00,33.0,28.4,30.28,SSE,149,4.0,5.0,83,0.00,,---,0.00,VWS V14.00,2013-03-09 12:45:00,
2013-03-09 07:46:00,32.9,28.0,30.28,SSE,149,3.0,5.0,82,0.00,,---,0.00,VWS V14.00,2013-03-09 12:46:00,
2013-03-09 07:50:00,33.1,28.2,30.28,SSE,155,5.0,6.0,82,0.00,,---,0.00,VWS V14.00,2013-03-09 12:50:00,
2013-03-09 07:51:00,33.2,28.3,30.27,SSE,151,2.0,6.0,82,0.00,,---,0.00,VWS V14.00,2013-03-09 12:51:00,
2013-03-09 07:53:00,33.2,28.0,30.27,SE,146,6.0,7.0,81,0.00,,---,0.00,VWS V14.00,2013-03-09 12:53:00,
2013-03-09 07:54:00,33.2,28.0,30.27,South,170,6.0,7.0,81,0.00,,---,0.00,VWS V14.00,2013-03-09 12:54:00,
2013-03-09 07:56:00,33.4,28.2,30.27,SSE,149,7.0,7.0,81,0.00,,---,0.00,VWS V14.00,2013-03-09 12:56:00,
2013-03-09 07:58:00,33.6,28.1,30.27,SSE,150,7.0,7.0,80,0.00,,---,0.00,VWS V14.00,2013-03-09 12:58:00,
2013-03-09 08:01:00,34.0,28.5,30.28,South,178,4.0,6.0,80,0.00,,---,0.00,VWS V14.00,2013-03-09 13:01:00,
2013-03-09 08:03:00,34.2,29.0,30.28,South,178,3.0,6.0,81,0.00,,---,0.00,VWS V14.00,2013-03-09 13:03:00,
2013-03-09 08:04:00,34.4,29.2,30.28,SSE,168,4.0,6.0,81,0.00,,---,0.00,VWS V14.00,2013-03-09 13:04:00,
2013-03-09 08:06:00,34.4,29.2,30.28,SSE,158,2.0,6.0,81,0.00,,---,0.00,VWS V14.00,2013-03-09 13:06:00,
2013-03-09 08:07:00,34.4,29.2,30.28,SSE,160,4.0,6.0,81,0.00,,---,0.00,VWS V14.00,2013-03-09 13:07:00,
2013-03-09 08:08:00,34.4,29.2,30.28,SSE,163,3.0,6.0,81,0.00,,---,0.00,VWS V14.00,2013-03-09 13:08:00,
2013-03-09 08:10:00,34.4,29.2,30.28,South,175,3.0,7.0,81,0.00,,---,0.00,VWS V14.00,2013-03-09 13:10:00,
2013-03-09 08:12:00,34.7,29.5,30.28,SSE,161,2.0,7.0,81,0.00,,---,0.00,VWS V14.00,2013-03-09 13:12:00,
2013-03-09 08:13:00,34.9,29.7,30.28,SSE,160,3.0,7.0,81,0.00,,---,0.00,VWS V14.00,2013-03-09 13:13:00,
2013-03-09 08:14:00,35.0,29.8,30.28,SSE,160,2.0,7.0,81,0.00,,---,0.00,VWS V14.00,2013-03-09 13:14:00,
2013-03-09 08:15:00,35.3,30.4,30.28,SSE,167,5.0,7.0,82,0.00,,---,0.00,VWS V14.00,2013-03-09 13:15:00,
2013-03-09 08:18:00,35.5,30.0,30.28,SSE,165,4.0,9.0,80,0.00,,---,0.00,VWS V14.00,2013-03-09 13:18:00,
2013-03-09 08:19:00,35.6,30.0,30.28,South,185,6.0,10.0,80,0.00,,---,0.00,VWS V14.00,2013-03-09 13:19:00,
2013-03-09 08:20:00,35.6,29.7,30.28,South,180,4.0,10.0,79,0.00,,---,0.00,VWS V14.00,2013-03-09 13:20:00,
2013-03-09 08:25:00,35.6,29.1,30.28,South,169,9.0,10.0,77,0.00,,---,0.00,VWS V14.00,2013-03-09 13:25:00,
2013-03-09 08:26:00,35.7,29.2,30.28,SSE,157,4.0,10.0,77,0.00,,---,0.00,VWS V14.00,2013-03-09 13:26:00,
2013-03-09 08:27:00,35.8,29.3,30.28,South,183,4.0,10.0,77,0.00,,---,0.00,VWS V14.00,2013-03-09 13:27:00,
2013-03-09 08:30:00,36.1,29.3,30.28,SSE,161,4.0,9.0,76,0.00,,---,0.00,VWS V14.00,2013-03-09 13:30:00,
2013-03-09 08:32:00,36.0,28.9,30.28,SSW,192,5.0,9.0,75,0.00,,---,0.00,VWS V14.00,2013-03-09 13:32:00,
2013-03-09 08:33:00,36.0,28.9,30.28,SSE,159,9.0,13.0,75,0.00,,---,0.00,VWS V14.00,2013-03-09 13:33:00,
2013-03-09 08:36:00,36.1,28.6,30.28,South,176,4.0,13.0,74,0.00,,---,0.00,VWS V14.00,2013-03-09 13:36:00,
2013-03-09 08:37:00,36.0,28.5,30.28,SSW,200,5.0,13.0,74,0.00,,---,0.00,VWS V14.00,2013-03-09 13:37:00,
2013-03-09 08:38:00,36.1,28.6,30.28,South,171,3.0,13.0,74,0.00,,---,0.00,VWS V14.00,2013-03-09 13:38:00,
2013-03-09 08:41:00,36.2,28.4,30.27,South,169,10.0,13.0,73,0.00,,---,0.00,VWS V14.00,2013-03-09 13:41:00,
2013-03-09 08:42:00,36.2,28.1,30.27,SSE,155,5.0,13.0,72,0.00,,---,0.00,VWS V14.00,2013-03-09 13:42:00,
2013-03-09 08:43:00,36.2,28.1,30.27,SSE,152,2.0,13.0,72,0.00,,---,0.00,VWS V14.00,2013-03-09 13:43:00,
2013-03-09 08:44:00,36.2,28.1,30.27,SSE,166,2.0,13.0,72,0.00,,---,0.00,VWS V14.00,2013-03-09 13:44:00,
2013-03-09 08:46:00,36.3,28.1,30.27,SSE,156,5.0,13.0,72,0.00,,---,0.00,VWS V14.00,2013-03-09 13:46:00,
2013-03-09 08:47:00,36.3,28.1,30.27,SE,142,6.0,13.0,72,0.00,,---,0.00,VWS V14.00,2013-03-09 13:47:00,
2013-03-09 08:49:00,36.3,27.8,30.27,SSE,163,6.0,13.0,71,0.00,,---,0.00,VWS V14.00,2013-03-09 13:49:00,
2013-03-09 08:50:00,36.3,27.8,30.27,SSE,151,12.0,13.0,71,0.00,,---,0.00,VWS V14.00,2013-03-09 13:50:00,
2013-03-09 08:52:00,36.3,27.8,30.27,SSE,159,5.0,13.0,71,0.00,,---,0.00,VWS V14.00,2013-03-09 13:52:00,
2013-03-09 08:53:00,36.3,27.8,30.27,SSE,150,5.0,13.0,71,0.00,,---,0.00,VWS V14.00,2013-03-09 13:53:00,
2013-03-09 08:55:00,36.4,27.9,30.27,SSE,148,2.0,13.0,71,0.00,,---,0.00,VWS V14.00,2013-03-09 13:55:00,
2013-03-09 08:57:00,36.6,28.4,30.27,South,170,2.0,13.0,72,0.00,,---,0.00,VWS V14.00,2013-03-09 13:57:00,
2013-03-09 08:58:00,36.7,28.5,30.27,SSE,168,3.0,13.0,72,0.00,,---,0.00,VWS V14.00,2013-03-09 13:58:00,
2013-03-09 08:59:00,36.7,28.9,30.27,SSE,161,4.0,8.0,73,0.00,,---,0.00,VWS V14.00,2013-03-09 13:59:00,
2013-03-09 09:02:00,36.8,28.6,30.27,South,180,4.0,11.0,72,0.00,,---,0.00,VWS V14.00,2013-03-09 14:02:00,
2013-03-09 09:03:00,36.9,28.7,30.27,South,178,4.0,11.0,72,0.00,,---,0.00,VWS V14.00,2013-03-09 14:03:00,
2013-03-09 09:04:00,37.0,29.2,30.27,SSE,155,6.0,11.0,73,0.00,,---,0.00,VWS V14.00,2013-03-09 14:04:00,
2013-03-09 09:06:00,37.0,28.8,30.27,SSE,160,2.0,11.0,72,0.00,,---,0.00,VWS V14.00,2013-03-09 14:06:00,
2013-03-09 09:08:00,37.1,29.3,30.27,SSE,168,7.0,12.0,73,0.00,,---,0.00,VWS V14.00,2013-03-09 14:08:00,
2013-03-09 09:10:00,37.1,28.9,30.27,SSE,160,4.0,12.0,72,0.00,,---,0.00,VWS V14.00,2013-03-09 14:10:00,
2013-03-09 09:13:00,37.2,29.0,30.26,SE,138,5.0,12.0,72,0.00,,---,0.00,VWS V14.00,2013-03-09 14:13:00,
2013-03-09 09:14:00,37.3,29.1,30.26,South,182,6.0,12.0,72,0.00,,---,0.00,VWS V14.00,2013-03-09 14:14:00,
2013-03-09 09:16:00,37.3,28.8,30.26,SSE,153,5.0,12.0,71,0.00,,---,0.00,VWS V14.00,2013-03-09 14:16:00,
2013-03-09 09:17:00,37.3,29.1,30.26,SSE,150,4.0,12.0,72,0.00,,---,0.00,VWS V14.00,2013-03-09 14:17:00,
2013-03-09 09:19:00,37.3,28.8,30.26,South,190,3.0,12.0,71,0.00,,---,0.00,VWS V14.00,2013-03-09 14:19:00,
2013-03-09 09:20:00,37.4,28.9,30.26,SSE,157,2.0,12.0,71,0.00,,---,0.00,VWS V14.00,2013-03-09 14:20:00,
2013-03-09 09:22:00,37.5,29.3,30.26,South,189,4.0,12.0,72,0.00,,---,0.00,VWS V14.00,2013-03-09 14:22:00,
2013-03-09 09:26:00,37.4,28.9,30.26,South,175,3.0,12.0,71,0.00,,---,0.00,VWS V14.00,2013-03-09 14:26:00,
2013-03-09 09:28:00,37.5,29.0,30.26,South,180,5.0,12.0,71,0.00,,---,0.00,VWS V14.00,2013-03-09 14:28:00,
2013-03-09 09:29:00,37.5,29.3,30.26,South,169,5.0,6.0,72,0.00,,---,0.00,VWS V14.00,2013-03-09 14:29:00,
2013-03-09 09:31:00,37.6,29.4,30.26,South,187,6.0,7.0,72,0.00,,---,0.00,VWS V14.00,2013-03-09 14:31:00,
2013-03-09 09:33:00,37.6,29.1,30.26,South,188,2.0,7.0,71,0.00,,---,0.00,VWS V14.00,2013-03-09 14:33:00,
2013-03-09 09:35:00,37.7,29.2,30.26,SSE,166,2.0,10.0,71,0.00,,---,0.00,VWS V14.00,2013-03-09 14:35:00,
2013-03-09 09:36:00,37.7,29.5,30.26,South,179,5.0,11.0,72,0.00,,---,0.00,VWS V14.00,2013-03-09 14:36:00,
2013-03-09 09:38:00,37.7,29.2,30.26,South,185,2.0,11.0,71,0.00,,---,0.00,VWS V14.00,2013-03-09 14:38:00,
2013-03-09 09:39:00,37.7,29.2,30.26,South,171,2.0,11.0,71,0.00,,---,0.00,VWS V14.00,2013-03-09 14:39:00,
2013-03-09 09:40:00,37.7,29.2,30.26,South,177,2.0,11.0,71,0.00,,---,0.00,VWS V14.00,2013-03-09 14:40:00,
2013-03-09 09:43:00,37.8,28.9,30.27,SSW,194,4.0,11.0,70,0.00,,---,0.00,VWS V14.00,2013-03-09 14:43:00,
2013-03-09 09:44:00,37.9,29.4,30.26,South,184,4.0,11.0,71,0.00,,---,0.00,VWS V14.00,2013-03-09 14:44:00,
2013-03-09 09:45:00,37.9,29.4,30.26,South,184,4.0,11.0,71,0.00,,---,0.00,VWS V14.00,2013-03-09 14:45:00,
2013-03-09 09:48:00,38.0,29.5,30.26,SSE,150,5.0,11.0,71,0.00,,---,0.00,VWS V14.00,2013-03-09 14:48:00,
2013-03-09 09:49:00,38.1,29.5,30.26,South,175,10.0,11.0,71,0.00,,---,0.00,VWS V14.00,2013-03-09 14:49:00,
2013-03-09 09:51:00,38.0,29.1,30.26,South,176,5.0,12.0,70,0.00,,---,0.00,VWS V14.00,2013-03-09 14:51:00,
2013-03-09 09:55:00,38.2,29.6,30.26,SSE,163,1.0,12.0,71,0.00,,---,0.00,VWS V14.00,2013-03-09 14:55:00,
2013-03-09 09:56:00,38.2,29.6,30.26,South,190,8.0,12.0,71,0.00,,---,0.00,VWS V14.00,2013-03-09 14:56:00,
2013-03-09 10:00:00,38.2,29.3,30.27,South,175,7.0,12.0,70,0.00,,---,0.00,VWS V14.00,2013-03-09 15:00:00,
2013-03-09 10:01:00,38.2,29.3,30.27,South,185,4.0,12.0,70,0.00,,---,0.00,VWS V14.00,2013-03-09 15:01:00,
2013-03-09 10:02:00,38.2,29.3,30.27,SSE,153,11.0,12.0,70,0.00,,---,0.00,VWS V14.00,2013-03-09 15:02:00,
2013-03-09 10:03:00,38.2,29.3,30.27,South,186,11.0,12.0,70,0.00,,---,0.00,VWS V14.00,2013-03-09 15:03:00,
2013-03-09 10:06:00,38.3,29.7,30.27,SSE,167,2.0,12.0,71,0.00,,---,0.00,VWS V14.00,2013-03-09 15:06:00,
2013-03-09 10:09:00,38.5,30.3,30.27,South,182,11.0,12.0,72,0.00,,---,0.00,VWS V14.00,2013-03-09 15:09:00,
2013-03-09 10:10:00,38.5,30.3,30.27,SSW,203,3.0,12.0,72,0.00,,---,0.00,VWS V14.00,2013-03-09 15:10:00,
2013-03-09 10:11:00,38.5,29.9,30.27,SSE,163,9.0,12.0,71,0.00,,---,0.00,VWS V14.00,2013-03-09 15:11:00,
2013-03-09 10:13:00,38.5,29.9,30.27,SSE,168,6.0,12.0,71,0.00,,---,0.00,VWS V14.00,2013-03-09 15:13:00,
2013-03-09 10:16:00,38.4,30.2,30.27,SW,215,5.0,14.0,72,0.00,,---,0.00,VWS V14.00,2013-03-09 15:16:00,
2013-03-09 10:17:00,38.5,30.3,30.27,South,181,12.0,14.0,72,0.00,,---,0.00,VWS V14.00,2013-03-09 15:17:00,
2013-03-09 10:18:00,38.4,30.2,30.27,South,171,4.0,14.0,72,0.00,,---,0.00,VWS V14.00,2013-03-09 15:18:00,
2013-03-09 10:22:00,38.4,29.8,30.27,South,169,9.0,16.0,71,0.00,,---,0.00,VWS V14.00,2013-03-09 15:22:00,
2013-03-09 10:23:00,38.4,30.2,30.27,SSE,163,6.0,16.0,72,0.00,,---,0.00,VWS V14.00,2013-03-09 15:23:00,
2013-03-09 10:25:00,38.5,30.6,30.27,SSW,196,4.0,16.0,73,0.00,,---,0.00,VWS V14.00,2013-03-09 15:25:00,
2013-03-09 10:27:00,38.6,30.7,30.27,South,181,5.0,16.0,73,0.00,,---,0.00,VWS V14.00,2013-03-09 15:27:00,
2013-03-09 10:28:00,38.6,31.0,30.27,South,185,8.0,16.0,74,0.00,,---,0.00,VWS V14.00,2013-03-09 15:28:00,
2013-03-09 10:29:00,38.7,30.8,30.27,South,171,5.0,8.0,73,0.00,,---,0.00,VWS V14.00,2013-03-09 15:29:00,
2013-03-09 10:30:00,38.6,30.7,30.27,South,171,4.0,8.0,73,0.00,,---,0.00,VWS V14.00,2013-03-09 15:30:00,
2013-03-09 10:33:00,38.8,31.2,30.27,South,173,4.0,8.0,74,0.00,,---,0.00,VWS V14.00,2013-03-09 15:33:00,
2013-03-09 10:35:00,38.8,30.9,30.27,SSW,192,3.0,8.0,73,0.00,,---,0.00,VWS V14.00,2013-03-09 15:35:00,
2013-03-09 10:36:00,38.7,30.5,30.27,South,176,3.0,11.0,72,0.00,,---,0.00,VWS V14.00,2013-03-09 15:36:00,
2013-03-09 10:39:00,38.7,31.1,30.27,South,184,4.0,11.0,74,0.00,,---,0.00,VWS V14.00,2013-03-09 15:39:00,
2013-03-09 10:40:00,38.8,30.9,30.27,South,171,3.0,11.0,73,0.00,,---,0.00,VWS V14.00,2013-03-09 15:40:00,
2013-03-09 10:42:00,38.8,31.2,30.27,South,180,3.0,11.0,74,0.00,,---,0.00,VWS V14.00,2013-03-09 15:42:00,
2013-03-09 10:44:00,38.8,30.9,30.27,SSW,192,4.0,11.0,73,0.00,,---,0.00,VWS V14.00,2013-03-09 15:44:00,
2013-03-09 10:45:00,38.8,30.9,30.27,South,175,5.0,11.0,73,0.00,,---,0.00,VWS V14.00,2013-03-09 15:45:00,
2013-03-09 10:47:00,38.8,30.9,30.27,SSE,167,4.0,11.0,73,0.00,,---,0.00,VWS V14.00,2013-03-09 15:47:00,
2013-03-09 10:50:00,39.1,31.5,30.27,South,171,4.0,11.0,74,0.00,,---,0.00,VWS V14.00,2013-03-09 15:50:00,
2013-03-09 10:51:00,39.1,31.2,30.27,South,184,5.0,11.0,73,0.00,,---,0.00,VWS V14.00,2013-03-09 15:51:00,
2013-03-09 10:52:00,39.1,31.2,30.27,South,184,5.0,11.0,73,0.00,,---,0.00,VWS V14.00,2013-03-09 15:52:00,
2013-03-09 10:56:00,39.3,31.7,30.27,SSE,160,5.0,11.0,74,0.00,,---,0.00,VWS V14.00,2013-03-09 15:56:00,
2013-03-09 10:57:00,39.4,31.8,30.27,South,177,3.0,11.0,74,0.00,,---,0.00,VWS V14.00,2013-03-09 15:57:00,
2013-03-09 11:02:00,39.5,31.9,30.26,SSE,163,7.0,12.0,74,0.00,,---,0.00,VWS V14.00,2013-03-09 16:02:00,
2013-03-09 11:03:00,39.5,31.9,30.26,South,182,4.0,12.0,74,0.00,,---,0.00,VWS V14.00,2013-03-09 16:03:00,
2013-03-09 11:04:00,39.7,32.1,30.26,South,173,13.0,13.0,74,0.00,,---,0.00,VWS V14.00,2013-03-09 16:04:00,
2013-03-09 11:07:00,39.8,32.5,30.26,SSE,152,6.0,13.0,75,0.00,,---,0.00,VWS V14.00,2013-03-09 16:07:00,
2013-03-09 11:08:00,39.7,32.1,30.26,South,172,10.0,17.0,74,0.00,,---,0.00,VWS V14.00,2013-03-09 16:08:00,
2013-03-09 11:09:00,39.7,32.4,30.25,South,171,10.0,17.0,75,0.00,,---,0.00,VWS V14.00,2013-03-09 16:09:00,
2013-03-09 11:13:00,39.8,32.5,30.25,South,178,6.0,17.0,75,0.00,,---,0.00,VWS V14.00,2013-03-09 16:13:00,
2013-03-09 11:14:00,39.7,31.8,30.26,SSE,165,1.0,17.0,73,0.00,,---,0.00,VWS V14.00,2013-03-09 16:14:00,
2013-03-09 11:15:00,39.6,31.7,30.25,SSE,160,4.0,17.0,73,0.00,,---,0.00,VWS V14.00,2013-03-09 16:15:00,
2013-03-09 11:19:00,39.8,32.2,30.25,SSE,154,6.0,17.0,74,0.00,,---,0.00,VWS V14.00,2013-03-09 16:19:00,
2013-03-09 11:20:00,39.8,32.2,30.25,South,177,4.0,17.0,74,0.00,,---,0.00,VWS V14.00,2013-03-09 16:20:00,
2013-03-09 11:21:00,39.9,32.3,30.25,SSE,158,7.0,17.0,74,0.00,,---,0.00,VWS V14.00,2013-03-09 16:21:00,
2013-03-09 11:24:00,39.8,31.9,30.25,SSE,161,5.0,17.0,73,0.00,,---,0.00,VWS V14.00,2013-03-09 16:24:00,
2013-03-09 11:25:00,39.9,32.0,30.25,SSE,152,7.0,17.0,73,0.00,,---,0.00,VWS V14.00,2013-03-09 16:25:00,
2013-03-09 11:26:00,39.9,32.3,30.25,SSE,160,7.0,17.0,74,0.00,,---,0.00,VWS V14.00,2013-03-09 16:26:00,
2013-03-09 11:27:00,40.0,32.7,30.25,South,171,4.0,17.0,75,0.00,,---,0.00,VWS V14.00,2013-03-09 16:27:00,
2013-03-09 11:31:00,40.2,32.9,30.25,SSE,167,5.0,11.0,75,0.00,,---,0.00,VWS V14.00,2013-03-09 16:31:00,
2013-03-09 11:32:00,40.2,32.6,30.24,SSE,156,7.0,11.0,74,0.00,,---,0.00,VWS V14.00,2013-03-09 16:32:00,
2013-03-09 11:36:00,40.2,32.6,30.24,SSE,155,4.0,12.0,74,0.00,,---,0.00,VWS V14.00,2013-03-09 16:36:00,
2013-03-09 11:37:00,40.2,32.2,30.24,SSE,164,4.0,12.0,73,0.00,,---,0.00,VWS V14.00,2013-03-09 16:37:00,
2013-03-09 11:38:00,40.3,32.3,30.24,SSE,148,4.0,12.0,73,0.00,,---,0.00,VWS V14.00,2013-03-09 16:38:00,
2013-03-09 11:39:00,40.3,32.3,30.24,SSE,150,7.0,12.0,73,0.00,,---,0.00,VWS V14.00,2013-03-09 16:39:00,
2013-03-09 11:42:00,40.5,32.5,30.24,SSE,163,5.0,12.0,73,0.00,,---,0.00,VWS V14.00,2013-03-09 16:42:00,
2013-03-09 11:43:00,40.5,32.5,30.24,South,173,3.0,12.0,73,0.00,,---,0.00,VWS V14.00,2013-03-09 16:43:00,
2013-03-09 11:44:00,40.6,32.3,30.24,SSE,157,10.0,12.0,72,0.00,,---,0.00,VWS V14.00,2013-03-09 16:44:00,
2013-03-09 11:47:00,40.6,33.0,30.24,South,190,11.0,12.0,74,0.00,,---,0.00,VWS V14.00,2013-03-09 16:47:00,
2013-03-09 11:49:00,40.5,32.5,30.24,South,171,3.0,12.0,73,0.00,,---,0.00,VWS V14.00,2013-03-09 16:49:00,
2013-03-09 11:52:00,40.5,32.2,30.24,South,179,6.0,14.0,72,0.00,,---,0.00,VWS V14.00,2013-03-09 16:52:00,
2013-03-09 11:54:00,40.6,32.6,30.24,South,183,11.0,14.0,73,0.00,,---,0.00,VWS V14.00,2013-03-09 16:54:00,
2013-03-09 11:55:00,40.8,33.2,30.23,South,175,6.0,14.0,74,0.00,,---,0.00,VWS V14.00,2013-03-09 16:55:00,
2013-03-09 11:59:00,41.0,33.0,30.23,South,178,5.0,7.0,73,0.00,,---,0.00,VWS V14.00,2013-03-09 16:59:00,
2013-03-09 12:00:00,41.2,33.9,30.23,South,171,4.0,7.0,75,0.00,,---,0.00,VWS V14.00,2013-03-09 17:00:00,
2013-03-09 12:01:00,41.4,33.8,30.23,SSE,160,6.0,7.0,74,0.00,,---,0.00,VWS V14.00,2013-03-09 17:01:00,
2013-03-09 12:03:00,41.6,33.6,30.23,South,171,4.0,10.0,73,0.00,,---,0.00,VWS V14.00,2013-03-09 17:03:00,
2013-03-09 12:04:00,41.6,33.6,30.23,SE,143,7.0,10.0,73,0.00,,---,0.00,VWS V14.00,2013-03-09 17:04:00,
2013-03-09 12:06:00,41.6,33.3,30.23,South,171,12.0,17.0,72,0.00,,---,0.00,VWS V14.00,2013-03-09 17:06:00,
2013-03-09 12:11:00,41.4,33.4,30.22,South,180,6.0,17.0,73,0.00,,---,0.00,VWS V14.00,2013-03-09 17:11:00,
2013-03-09 12:12:00,41.6,33.6,30.22,South,182,10.0,17.0,73,0.00,,---,0.00,VWS V14.00,2013-03-09 17:12:00,
2013-03-09 12:16:00,41.6,33.6,30.22,SSE,161,6.0,17.0,73,0.00,,---,0.00,VWS V14.00,2013-03-09 17:16:00,
2013-03-09 12:17:00,41.6,33.6,30.22,SSE,150,9.0,17.0,73,0.00,,---,0.00,VWS V14.00,2013-03-09 17:17:00,
2013-03-09 12:18:00,41.6,33.6,30.22,South,177,3.0,17.0,73,0.00,,---,0.00,VWS V14.00,2013-03-09 17:18:00,
2013-03-09 12:22:00,41.6,33.6,30.22,SSW,205,2.0,17.0,73,0.00,,---,0.00,VWS V14.00,2013-03-09 17:22:00,
2013-03-09 12:23:00,41.6,33.6,30.22,South,175,7.0,17.0,73,0.00,,---,0.00,VWS V14.00,2013-03-09 17:23:00,
2013-03-09 12:28:00,41.4,34.1,30.21,SSE,158,5.0,17.0,75,0.00,,---,0.00,VWS V14.00,2013-03-09 17:28:00,
2013-03-09 12:29:00,41.3,34.0,30.21,SSW,192,10.0,10.0,75,0.00,,---,0.00,VWS V14.00,2013-03-09 17:29:00,
2013-03-09 12:31:00,41.2,34.2,30.21,SE,144,7.0,11.0,76,0.00,,---,0.00,VWS V14.00,2013-03-09 17:31:00,
2013-03-09 12:34:00,41.2,34.5,30.21,South,180,4.0,12.0,77,0.00,,---,0.00,VWS V14.00,2013-03-09 17:34:00,
2013-03-09 12:35:00,41.2,34.5,30.21,SE,142,5.0,12.0,77,0.00,,---,0.00,VWS V14.00,2013-03-09 17:35:00,
2013-03-09 12:37:00,41.3,34.7,30.21,South,169,6.0,12.0,77,0.00,,---,0.00,VWS V14.00,2013-03-09 17:37:00,
2013-03-09 12:39:00,41.3,34.7,30.21,SSE,159,4.0,12.0,77,0.00,,---,0.00,VWS V14.00,2013-03-09 17:39:00,
2013-03-09 12:40:00,41.3,34.7,30.21,SSE,155,4.0,12.0,77,0.00,,---,0.00,VWS V14.00,2013-03-09 17:40:00,
2013-03-09 12:42:00,41.5,34.5,30.20,South,173,6.0,17.0,76,0.00,,---,0.00,VWS V14.00,2013-03-09 17:42:00,
2013-03-09 12:45:00,41.6,34.3,30.20,South,184,9.0,17.0,75,0.00,,---,0.00,VWS V14.00,2013-03-09 17:45:00,
2013-03-09 12:46:00,41.6,34.3,30.20,South,179,6.0,17.0,75,0.00,,---,0.00,VWS V14.00,2013-03-09 17:46:00,
2013-03-09 12:49:00,41.6,33.9,30.20,SSE,167,7.0,17.0,74,0.00,,---,0.00,VWS V14.00,2013-03-09 17:49:00,
2013-03-09 12:50:00,41.6,33.9,30.19,South,171,2.0,17.0,74,0.00,,---,0.00,VWS V14.00,2013-03-09 17:50:00,
2013-03-09 12:52:00,41.6,33.9,30.19,South,171,9.0,17.0,74,0.00,,---,0.00,VWS V14.00,2013-03-09 17:52:00,
2013-03-09 12:55:00,41.5,33.5,30.18,SE,142,12.0,17.0,73,0.00,,---,0.00,VWS V14.00,2013-03-09 17:55:00,
2013-03-09 12:56:00,41.5,33.2,30.18,South,173,5.0,17.0,72,0.00,,---,0.00,VWS V14.00,2013-03-09 17:56:00,
2013-03-09 12:57:00,41.6,33.3,30.18,SSE,167,5.0,17.0,72,0.00,,---,0.00,VWS V14.00,2013-03-09 17:57:00,
2013-03-09 12:58:00,41.6,33.6,30.18,South,183,5.0,12.0,73,0.00,,---,0.00,VWS V14.00,2013-03-09 17:58:00,
2013-03-09 13:01:00,41.8,33.5,30.18,SSE,160,9.0,12.0,72,0.00,,---,0.00,VWS V14.00,2013-03-09 18:01:00,
2013-03-09 13:02:00,41.9,33.5,30.18,South,169,9.0,12.0,72,0.00,,---,0.00,VWS V14.00,2013-03-09 18:02:00,
2013-03-09 13:04:00,42.0,33.6,30.18,SSE,161,11.0,12.0,72,0.00,,---,0.00,VWS V14.00,2013-03-09 18:04:00,
2013-03-09 13:05:00,42.0,33.3,30.18,SSE,159,5.0,15.0,71,0.00,,---,0.00,VWS V14.00,2013-03-09 18:05:00,
2013-03-09 13:06:00,42.1,34.1,30.17,South,183,4.0,16.0,73,0.00,,---,0.00,VWS V14.00,2013-03-09 18:06:00,
2013-03-09 13:08:00,42.3,34.3,30.17,South,178,1.0,16.0,73,0.00,,---,0.00,VWS V14.00,2013-03-09 18:08:00,
2013-03-09 13:10:00,42.5,34.1,30.17,South,187,6.0,16.0,72,0.00,,---,0.00,VWS V14.00,2013-03-09 18:10:00,
2013-03-09 13:11:00,42.6,34.6,30.17,South,179,7.0,16.0,73,0.00,,---,0.00,VWS V14.00,2013-03-09 18:11:00,
2013-03-09 13:12:00,42.6,34.6,30.17,SE,144,15.0,16.0,73,0.00,,---,0.00,VWS V14.00,2013-03-09 18:12:00,
2013-03-09 13:14:00,42.4,33.7,30.17,SSE,159,8.0,16.0,71,0.00,,---,0.00,VWS V14.00,2013-03-09 18:14:00,
2013-03-09 13:15:00,42.4,34.0,30.17,SSE,161,11.0,16.0,72,0.00,,---,0.00,VWS V14.00,2013-03-09 18:15:00,
2013-03-09 13:16:00,42.4,34.0,30.16,South,169,5.0,16.0,72,0.00,,---,0.00,VWS V14.00,2013-03-09 18:16:00,
2013-03-09 13:17:00,42.4,34.0,30.16,SSE,151,8.0,16.0,72,0.00,,---,0.00,VWS V14.00,2013-03-09 18:17:00,
2013-03-09 13:19:00,42.3,33.2,30.16,SSE,163,6.0,16.0,70,0.00,,---,0.00,VWS V14.00,2013-03-09 18:19:00,
2013-03-09 13:21:00,42.4,33.7,30.16,SSE,150,5.0,16.0,71,0.00,,---,0.00,VWS V14.00,2013-03-09 18:21:00,
2013-03-09 13:23:00,42.3,33.2,30.15,SSE,167,14.0,16.0,70,0.00,,---,0.00,VWS V14.00,2013-03-09 18:23:00,
2013-03-09 13:24:00,42.2,32.8,30.15,South,177,8.0,16.0,69,0.00,,---,0.00,VWS V14.00,2013-03-09 18:24:00,
2013-03-09 13:27:00,42.5,34.1,30.14,SSE,157,7.0,16.0,72,0.00,,---,0.00,VWS V14.00,2013-03-09 18:27:00,
2013-03-09 13:29:00,42.7,34.0,30.14,SSE,148,15.0,15.0,71,0.00,,---,0.00,VWS V14.00,2013-03-09 18:29:00,
2013-03-09 13:30:00,42.7,34.0,30.14,SSE,164,7.0,18.0,71,0.00,,---,0.00,VWS V14.00,2013-03-09 18:30:00,
2013-03-09 13:34:00,42.7,34.0,30.13,SSE,161,15.0,18.0,71,0.00,,---,0.00,VWS V14.00,2013-03-09 18:34:00,
2013-03-09 13:35:00,42.7,33.2,30.13,SSE,155,5.0,18.0,69,0.00,,---,0.00,VWS V14.00,2013-03-09 18:35:00,
2013-03-09 13:36:00,42.7,33.2,30.14,SSE,148,6.0,18.0,69,0.00,,---,0.00,VWS V14.00,2013-03-09 18:36:00,
2013-03-09 13:37:00,42.7,33.2,30.14,South,170,6.0,18.0,69,0.00,,---,0.00,VWS V14.00,2013-03-09 18:37:00,
2013-03-09 13:40:00,42.9,33.8,30.14,South,183,5.0,18.0,70,0.00,,---,0.00,VWS V14.00,2013-03-09 18:40:00,
2013-03-09 13:41:00,43.1,34.0,30.14,SSW,200,11.0,18.0,70,0.00,,---,0.00,VWS V14.00,2013-03-09 18:41:00,
2013-03-09 13:42:00,43.0,33.5,30.13,South,175,16.0,18.0,69,0.00,,---,0.00,VWS V14.00,2013-03-09 18:42:00,
2013-03-09 13:47:00,43.3,34.2,30.13,South,176,5.0,18.0,70,0.00,,---,0.00,VWS V14.00,2013-03-09 18:47:00,
2013-03-09 13:48:00,43.4,34.3,30.13,South,173,3.0,18.0,70,0.00,,---,0.00,VWS V14.00,2013-03-09 18:48:00,
2013-03-09 13:50:00,44.0,34.9,30.13,SSE,162,4.0,18.0,70,0.00,,---,0.00,VWS V14.00,2013-03-09 18:50:00,
2013-03-09 13:53:00,44.4,34.5,30.13,SSE,148,6.0,18.0,68,0.00,,---,0.00,VWS V14.00,2013-03-09 18:53:00,
2013-03-09 13:54:00,44.4,34.1,30.12,SSE,165,7.0,18.0,67,0.00,,---,0.00,VWS V14.00,2013-03-09 18:54:00,
2013-03-09 13:55:00,44.4,33.8,30.12,SSE,165,13.0,18.0,66,0.00,,---,0.00,VWS V14.00,2013-03-09 18:55:00,
2013-03-09 13:58:00,44.6,34.7,30.12,South,184,11.0,18.0,68,0.00,,---,0.00,VWS V14.00,2013-03-09 18:58:00,
2013-03-09 13:59:00,44.6,34.3,30.11,SSE,168,4.0,6.0,67,0.00,,---,0.00,VWS V14.00,2013-03-09 18:59:00,
2013-03-09 14:00:00,44.7,34.8,30.11,SSE,157,7.0,9.0,68,0.00,,---,0.00,VWS V14.00,2013-03-09 19:00:00,
2013-03-09 14:04:00,45.0,34.3,30.11,South,175,14.0,15.0,66,0.00,,---,0.00,VWS V14.00,2013-03-09 19:04:00,
2013-03-09 14:05:00,45.1,34.8,30.11,SSE,167,6.0,15.0,67,0.00,,---,0.00,VWS V14.00,2013-03-09 19:05:00,
2013-03-09 14:06:00,45.1,34.4,30.11,SSE,161,6.0,15.0,66,0.00,,---,0.00,VWS V14.00,2013-03-09 19:06:00,
2013-03-09 14:10:00,45.0,34.3,30.11,SSE,157,12.0,15.0,66,0.00,,---,0.00,VWS V14.00,2013-03-09 19:10:00,
2013-03-09 14:12:00,45.0,34.0,30.11,South,186,11.0,15.0,65,0.00,,---,0.00,VWS V14.00,2013-03-09 19:12:00,
2013-03-09 14:14:00,45.0,34.3,30.11,South,171,6.0,15.0,66,0.00,,---,0.00,VWS V14.00,2013-03-09 19:14:00,
2013-03-09 14:15:00,45.0,34.3,30.11,SSE,159,12.0,15.0,66,0.00,,---,0.00,VWS V14.00,2013-03-09 19:15:00,
2013-03-09 14:16:00,45.0,34.3,30.11,SSE,154,4.0,15.0,66,0.00,,---,0.00,VWS V14.00,2013-03-09 19:16:00,
2013-03-09 14:17:00,45.1,34.4,30.10,South,171,9.0,15.0,66,0.00,,---,0.00,VWS V14.00,2013-03-09 19:17:00,
2013-03-09 14:20:00,45.0,34.3,30.10,SSE,148,11.0,16.0,66,0.00,,---,0.00,VWS V14.00,2013-03-09 19:20:00,
2013-03-09 14:23:00,44.9,33.9,30.10,SSE,153,13.0,19.0,65,0.00,,---,0.00,VWS V14.00,2013-03-09 19:23:00,
2013-03-09 14:26:00,44.9,34.2,30.09,SSE,168,6.0,19.0,66,0.00,,---,0.00,VWS V14.00,2013-03-09 19:26:00,
2013-03-09 14:27:00,45.0,34.7,30.09,SE,134,11.0,19.0,67,0.00,,---,0.00,VWS V14.00,2013-03-09 19:27:00,
2013-03-09 14:28:00,45.0,34.3,30.09,South,176,5.0,19.0,66,0.00,,---,0.00,VWS V14.00,2013-03-09 19:28:00,
2013-03-09 14:31:00,45.2,33.4,30.09,SSE,155,13.0,14.0,63,0.00,,---,0.00,VWS V14.00,2013-03-09 19:31:00,
2013-03-09 14:32:00,45.1,34.0,30.09,South,182,9.0,14.0,65,0.00,,---,0.00,VWS V14.00,2013-03-09 19:32:00,
2013-03-09 14:33:00,45.2,34.2,30.09,SSE,157,11.0,14.0,65,0.00,,---,0.00,VWS V14.00,2013-03-09 19:33:00,
2013-03-09 14:36:00,45.4,34.3,30.09,South,175,7.0,14.0,65,0.00,,---,0.00,VWS V14.00,2013-03-09 19:36:00,
2013-03-09 14:38:00,45.6,34.5,30.09,SSE,153,10.0,18.0,65,0.00,,---,0.00,VWS V14.00,2013-03-09 19:38:00,
2013-03-09 14:39:00,45.8,34.7,30.09,South,180,13.0,18.0,65,0.00,,---,0.00,VWS V14.00,2013-03-09 19:39:00,
2013-03-09 14:42:00,45.8,33.9,30.09,South,180,10.0,18.0,63,0.00,,---,0.00,VWS V14.00,2013-03-09 19:42:00,
2013-03-09 14:44:00,45.8,34.3,30.09,SSW,213,7.0,18.0,64,0.00,,---,0.00,VWS V14.00,2013-03-09 19:44:00,
2013-03-09 14:47:00,45.9,34.4,30.09,SSW,198,16.0,19.0,64,0.00,,---,0.00,VWS V14.00,2013-03-09 19:47:00,
2013-03-09 14:48:00,45.8,34.3,30.09,SSE,151,7.0,19.0,64,0.00,,---,0.00,VWS V14.00,2013-03-09 19:48:00,
2013-03-09 14:51:00,45.8,34.3,30.09,SSE,157,9.0,19.0,64,0.00,,---,0.00,VWS V14.00,2013-03-09 19:51:00,
2013-03-09 14:52:00,45.7,33.8,30.09,South,182,10.0,19.0,63,0.00,,---,0.00,VWS V14.00,2013-03-09 19:52:00,
2013-03-09 14:53:00,45.7,33.8,30.09,South,184,12.0,19.0,63,0.00,,---,0.00,VWS V14.00,2013-03-09 19:53:00,
2013-03-09 14:54:00,45.6,33.3,30.09,South,177,20.0,20.0,62,0.00,,---,0.00,VWS V14.00,2013-03-09 19:54:00,
2013-03-09 14:57:00,45.3,33.9,30.09,SE,143,10.0,20.0,64,0.00,,---,0.00,VWS V14.00,2013-03-09 19:57:00,
2013-03-09 14:58:00,45.2,33.4,30.09,SSE,167,12.0,20.0,63,0.00,,---,0.00,VWS V14.00,2013-03-09 19:58:00,
2013-03-09 15:00:00,45.3,34.2,30.09,South,184,15.0,18.0,65,0.00,,---,0.00,VWS V14.00,2013-03-09 20:00:00,
2013-03-09 15:02:00,45.3,33.9,30.09,South,178,11.0,23.0,64,0.00,,---,0.00,VWS V14.00,2013-03-09 20:02:00,
2013-03-09 15:03:00,45.3,33.9,30.09,SE,146,14.0,23.0,64,0.00,,---,0.00,VWS V14.00,2013-03-09 20:03:00,
2013-03-09 15:05:00,45.2,33.4,30.09,SSE,167,7.0,23.0,63,0.00,,---,0.00,VWS V14.00,2013-03-09 20:05:00,
2013-03-09 15:07:00,45.1,33.7,30.09,SSE,164,9.0,23.0,64,0.00,,---,0.00,VWS V14.00,2013-03-09 20:07:00,
2013-03-09 15:08:00,45.1,34.0,30.09,South,190,16.0,23.0,65,0.00,,---,0.00,VWS V14.00,2013-03-09 20:08:00,
2013-03-09 15:09:00,45.1,33.7,30.09,South,182,10.0,23.0,64,0.00,,---,0.00,VWS V14.00,2013-03-09 20:09:00,
2013-03-09 15:12:00,45.1,34.0,30.09,SSE,160,18.0,23.0,65,0.00,,---,0.00,VWS V14.00,2013-03-09 20:12:00,
2013-03-09 15:13:00,45.2,34.2,30.08,South,183,12.0,23.0,65,0.00,,---,0.00,VWS V14.00,2013-03-09 20:13:00,
2013-03-09 15:14:00,45.3,34.2,30.08,South,173,5.0,23.0,65,0.00,,---,0.00,VWS V14.00,2013-03-09 20:14:00,
2013-03-09 15:15:00,45.4,34.7,30.08,SE,142,13.0,23.0,66,0.00,,---,0.00,VWS V14.00,2013-03-09 20:15:00,
2013-03-09 15:17:00,45.2,33.8,30.08,South,178,11.0,24.0,64,0.00,,---,0.00,VWS V14.00,2013-03-09 20:17:00,
2013-03-09 15:18:00,45.1,34.0,30.07,South,171,6.0,24.0,65,0.00,,---,0.00,VWS V14.00,2013-03-09 20:18:00,
2013-03-09 15:19:00,45.1,34.0,30.07,South,177,13.0,24.0,65,0.00,,---,0.00,VWS V14.00,2013-03-09 20:19:00,
2013-03-09 15:20:00,45.0,33.6,30.07,SSE,155,7.0,24.0,64,0.00,,---,0.00,VWS V14.00,2013-03-09 20:20:00,
2013-03-09 15:22:00,45.2,34.5,30.07,South,171,9.0,24.0,66,0.00,,---,0.00,VWS V14.00,2013-03-09 20:22:00,
2013-03-09 15:23:00,45.2,34.2,30.07,SE,146,4.0,24.0,65,0.00,,---,0.00,VWS V14.00,2013-03-09 20:23:00,
2013-03-09 15:28:00,45.3,34.2,30.07,South,186,24.0,24.0,65,0.00,,---,0.00,VWS V14.00,2013-03-09 20:28:00,
2013-03-09 15:29:00,45.2,33.8,30.07,SSW,195,6.0,15.0,64,0.00,,---,0.00,VWS V14.00,2013-03-09 20:29:00,
2013-03-09 15:33:00,45.2,33.4,30.07,South,182,11.0,19.0,63,0.00,,---,0.00,VWS V14.00,2013-03-09 20:33:00,
2013-03-09 15:34:00,45.1,33.3,30.07,South,180,13.0,20.0,63,0.00,,---,0.00,VWS V14.00,2013-03-09 20:34:00,
2013-03-09 15:40:00,45.2,34.2,30.07,SSE,157,5.0,20.0,65,0.00,,---,0.00,VWS V14.00,2013-03-09 20:40:00,
2013-03-09 15:42:00,45.2,34.2,30.07,SSE,159,5.0,20.0,65,0.00,,---,0.00,VWS V14.00,2013-03-09 20:42:00,
2013-03-09 15:43:00,45.2,34.2,30.07,South,169,5.0,20.0,65,0.00,,---,0.00,VWS V14.00,2013-03-09 20:43:00,
2013-03-09 15:45:00,45.2,34.2,30.07,South,186,6.0,20.0,65,0.00,,---,0.00,VWS V14.00,2013-03-09 20:45:00,
2013-03-09 15:47:00,45.2,34.5,30.07,South,185,13.0,20.0,66,0.00,,---,0.00,VWS V14.00,2013-03-09 20:47:00,
2013-03-09 15:48:00,45.2,34.2,30.07,SE,142,9.0,20.0,65,0.00,,---,0.00,VWS V14.00,2013-03-09 20:48:00,
2013-03-09 15:51:00,45.0,34.3,30.07,South,171,13.0,20.0,66,0.00,,---,0.00,VWS V14.00,2013-03-09 20:51:00,
2013-03-09 15:53:00,45.0,34.3,30.06,SSE,151,4.0,20.0,66,0.00,,---,0.00,VWS V14.00,2013-03-09 20:53:00,
2013-03-09 15:54:00,45.1,34.4,30.06,SSE,158,5.0,20.0,66,0.00,,---,0.00,VWS V14.00,2013-03-09 20:54:00,
2013-03-09 15:55:00,45.1,34.4,30.06,SSW,194,6.0,20.0,66,0.00,,---,0.00,VWS V14.00,2013-03-09 20:55:00,
2013-03-09 15:56:00,45.2,34.5,30.07,SSE,156,7.0,20.0,66,0.00,,---,0.00,VWS V14.00,2013-03-09 20:56:00,
2013-03-09 15:58:00,45.1,34.0,30.07,South,176,7.0,20.0,65,0.00,,---,0.00,VWS V14.00,2013-03-09 20:58:00,
2013-03-09 16:00:00,45.1,34.0,30.07,South,171,10.0,11.0,65,0.00,,---,0.00,VWS V14.00,2013-03-09 21:00:00,
2013-03-09 16:03:00,45.0,34.0,30.07,South,190,13.0,15.0,65,0.00,,---,0.00,VWS V14.00,2013-03-09 21:03:00,
2013-03-09 16:06:00,45.0,33.6,30.06,South,178,10.0,16.0,64,0.00,,---,0.00,VWS V14.00,2013-03-09 21:06:00,
2013-03-09 16:08:00,45.0,34.0,30.06,South,175,12.0,16.0,65,0.00,,---,0.00,VWS V14.00,2013-03-09 21:08:00,
2013-03-09 16:10:00,44.8,33.4,30.06,South,186,10.0,17.0,64,0.00,,---,0.00,VWS V14.00,2013-03-09 21:10:00,
2013-03-09 16:12:00,45.0,34.7,30.06,SSE,154,12.0,17.0,67,0.00,,---,0.00,VWS V14.00,2013-03-09 21:12:00,
2013-03-09 16:14:00,45.1,34.4,30.06,South,171,9.0,17.0,66,0.00,,---,0.00,VWS V14.00,2013-03-09 21:14:00,
2013-03-09 16:16:00,45.1,34.8,30.06,South,188,7.0,17.0,67,0.00,,---,0.00,VWS V14.00,2013-03-09 21:16:00,
2013-03-09 16:17:00,45.0,34.7,30.06,SSE,150,5.0,17.0,67,0.00,,---,0.00,VWS V14.00,2013-03-09 21:17:00,
2013-03-09 16:18:00,45.0,34.3,30.06,SSE,152,10.0,17.0,66,0.00,,---,0.00,VWS V14.00,2013-03-09 21:18:00,
2013-03-09 16:20:00,45.0,34.3,30.06,SSW,192,16.0,17.0,66,0.00,,---,0.00,VWS V14.00,2013-03-09 21:20:00,
2013-03-09 16:21:00,45.0,34.7,30.06,SSE,157,2.0,17.0,67,0.00,,---,0.00,VWS V14.00,2013-03-09 21:21:00,
2013-03-09 16:24:00,45.0,34.3,30.05,SSE,157,12.0,20.0,66,0.00,,---,0.00,VWS V14.00,2013-03-09 21:24:00,
2013-03-09 16:25:00,45.0,34.3,30.05,SSE,165,11.0,20.0,66,0.00,,---,0.00,VWS V14.00,2013-03-09 21:25:00,
2013-03-09 16:27:00,44.9,34.6,30.05,South,185,14.0,20.0,67,0.00,,---,0.00,VWS V14.00,2013-03-09 21:27:00,
2013-03-09 16:30:00,44.8,33.8,30.05,SSE,155,5.0,16.0,65,0.00,,---,0.00,VWS V14.00,2013-03-09 21:30:00,
2013-03-09 16:32:00,44.7,33.3,30.05,South,172,4.0,16.0,64,0.00,,---,0.00,VWS V14.00,2013-03-09 21:32:00,
2013-03-09 16:33:00,44.7,33.7,30.05,South,188,12.0,16.0,65,0.00,,---,0.00,VWS V14.00,2013-03-09 21:33:00,
2013-03-09 16:35:00,44.6,33.2,30.05,SE,130,12.0,19.0,64,0.00,,---,0.00,VWS V14.00,2013-03-09 21:35:00,
2013-03-09 16:36:00,44.6,33.2,30.05,South,176,9.0,20.0,64,0.00,,---,0.00,VWS V14.00,2013-03-09 21:36:00,
2013-03-09 16:38:00,44.6,33.2,30.05,South,173,11.0,20.0,64,0.00,,---,0.00,VWS V14.00,2013-03-09 21:38:00,
2013-03-09 16:39:00,44.7,33.3,30.05,SSE,157,6.0,20.0,64,0.00,,---,0.00,VWS V14.00,2013-03-09 21:39:00,
2013-03-09 16:41:00,44.6,33.2,30.05,South,175,3.0,20.0,64,0.00,,---,0.00,VWS V14.00,2013-03-09 21:41:00,
2013-03-09 16:43:00,44.6,33.2,30.05,SE,142,11.0,20.0,64,0.00,,---,0.00,VWS V14.00,2013-03-09 21:43:00,
2013-03-09 16:44:00,44.6,33.2,30.05,SSE,163,5.0,20.0,64,0.00,,---,0.00,VWS V14.00,2013-03-09 21:44:00,
2013-03-09 16:45:00,44.6,33.2,30.05,SE,145,4.0,20.0,64,0.00,,---,0.00,VWS V14.00,2013-03-09 21:45:00,
2013-03-09 16:47:00,44.6,33.2,30.04,South,186,2.0,20.0,64,0.00,,---,0.00,VWS V14.00,2013-03-09 21:47:00,
2013-03-09 16:49:00,44.5,33.1,30.04,SSE,165,14.0,20.0,64,0.00,,---,0.00,VWS V14.00,2013-03-09 21:49:00,
2013-03-09 16:50:00,44.5,33.1,30.04,South,178,14.0,20.0,64,0.00,,---,0.00,VWS V14.00,2013-03-09 21:50:00,
2013-03-09 16:52:00,44.3,32.9,30.04,South,169,4.0,20.0,64,0.00,,---,0.00,VWS V14.00,2013-03-09 21:52:00,
2013-03-09 16:53:00,44.3,33.3,30.04,SSW,192,10.0,20.0,65,0.00,,---,0.00,VWS V14.00,2013-03-09 21:53:00,
2013-03-09 16:55:00,44.4,33.4,30.04,SSE,168,10.0,20.0,65,0.00,,---,0.00,VWS V14.00,2013-03-09 21:55:00,
2013-03-09 16:56:00,44.4,33.4,30.04,South,188,3.0,20.0,65,0.00,,---,0.00,VWS V14.00,2013-03-09 21:56:00,
2013-03-09 16:57:00,44.4,33.4,30.04,SSE,160,5.0,20.0,65,0.00,,---,0.00,VWS V14.00,2013-03-09 21:57:00,
2013-03-09 16:59:00,44.4,33.4,30.04,SSE,162,5.0,13.0,65,0.00,,---,0.00,VWS V14.00,2013-03-09 21:59:00,
2013-03-09 17:00:00,44.4,33.4,30.04,South,177,4.0,13.0,65,0.00,,---,0.00,VWS V14.00,2013-03-09 22:00:00,
2013-03-09 17:01:00,44.3,33.3,30.04,South,177,5.0,13.0,65,0.00,,---,0.00,VWS V14.00,2013-03-09 22:01:00,
2013-03-09 17:03:00,44.3,33.7,30.04,SSE,161,4.0,13.0,66,0.00,,---,0.00,VWS V14.00,2013-03-09 22:03:00,
2013-03-09 17:04:00,44.3,33.7,30.04,South,171,4.0,13.0,66,0.00,,---,0.00,VWS V14.00,2013-03-09 22:04:00,
2013-03-09 17:06:00,44.3,33.3,30.04,South,181,3.0,13.0,65,0.00,,---,0.00,VWS V14.00,2013-03-09 22:06:00,
2013-03-09 17:07:00,44.3,33.3,30.04,South,189,10.0,13.0,65,0.00,,---,0.00,VWS V14.00,2013-03-09 22:07:00,
2013-03-09 17:09:00,44.3,33.7,30.04,South,171,3.0,13.0,66,0.00,,---,0.00,VWS V14.00,2013-03-09 22:09:00,
2013-03-09 17:12:00,44.4,33.4,30.04,South,188,6.0,13.0,65,0.00,,---,0.00,VWS V14.00,2013-03-09 22:12:00,
2013-03-09 17:15:00,44.3,33.7,30.04,SSW,192,6.0,13.0,66,0.00,,---,0.00,VWS V14.00,2013-03-09 22:15:00,
2013-03-09 17:16:00,44.3,33.7,30.05,South,182,7.0,13.0,66,0.00,,---,0.00,VWS V14.00,2013-03-09 22:16:00,
2013-03-09 17:17:00,44.2,33.6,30.05,South,180,4.0,13.0,66,0.00,,---,0.00,VWS V14.00,2013-03-09 22:17:00,
2013-03-09 17:18:00,44.2,33.6,30.04,South,173,4.0,13.0,66,0.00,,---,0.00,VWS V14.00,2013-03-09 22:18:00,
2013-03-09 17:21:00,44.2,33.6,30.04,South,173,4.0,13.0,66,0.00,,---,0.00,VWS V14.00,2013-03-09 22:21:00,
2013-03-09 17:23:00,44.3,34.0,30.04,South,184,8.0,13.0,67,0.00,,---,0.00,VWS V14.00,2013-03-09 22:23:00,
2013-03-09 17:24:00,44.3,33.7,30.03,South,179,5.0,13.0,66,0.00,,---,0.00,VWS V14.00,2013-03-09 22:24:00,
2013-03-09 17:28:00,44.3,34.0,30.03,SSE,155,4.0,14.0,67,0.00,,---,0.00,VWS V14.00,2013-03-09 22:28:00,
2013-03-09 17:31:00,44.3,34.0,30.03,SSE,148,10.0,16.0,67,0.00,,---,0.00,VWS V14.00,2013-03-09 22:31:00,
2013-03-09 17:33:00,44.3,34.0,30.03,SSE,165,6.0,16.0,67,0.00,,---,0.00,VWS V14.00,2013-03-09 22:33:00,
2013-03-09 17:34:00,44.2,34.0,30.03,South,188,9.0,16.0,67,0.00,,---,0.00,VWS V14.00,2013-03-09 22:34:00,
2013-03-09 17:35:00,44.2,34.0,30.03,South,175,4.0,16.0,67,0.00,,---,0.00,VWS V14.00,2013-03-09 22:35:00,
2013-03-09 17:38:00,44.2,34.3,30.03,South,178,3.0,16.0,68,0.00,,---,0.00,VWS V14.00,2013-03-09 22:38:00,
2013-03-09 17:39:00,44.2,34.3,30.03,SSE,165,5.0,16.0,68,0.00,,---,0.00,VWS V14.00,2013-03-09 22:39:00,
2013-03-09 17:40:00,44.2,34.3,30.03,South,172,3.0,16.0,68,0.00,,---,0.00,VWS V14.00,2013-03-09 22:40:00,
2013-03-09 17:44:00,44.3,34.4,30.03,South,171,3.0,16.0,68,0.00,,---,0.00,VWS V14.00,2013-03-09 22:44:00,
2013-03-09 17:45:00,44.3,34.4,30.03,South,178,2.0,16.0,68,0.00,,---,0.00,VWS V14.00,2013-03-09 22:45:00,
2013-03-09 17:50:00,44.2,34.7,30.03,SSW,192,11.0,16.0,69,0.00,,---,0.00,VWS V14.00,2013-03-09 22:50:00,
2013-03-09 17:51:00,44.2,34.7,30.03,SSE,165,4.0,16.0,69,0.00,,---,0.00,VWS V14.00,2013-03-09 22:51:00,
2013-03-09 17:52:00,44.1,34.6,30.03,South,174,4.0,16.0,69,0.00,,---,0.00,VWS V14.00,2013-03-09 22:52:00,
2013-03-09 17:55:00,44.1,35.0,30.02,SSE,160,4.0,16.0,70,0.00,,---,0.00,VWS V14.00,2013-03-09 22:55:00,
2013-03-09 17:57:00,44.0,34.9,30.02,SSE,153,3.0,16.0,70,0.00,,---,0.00,VWS V14.00,2013-03-09 22:57:00,
2013-03-09 17:59:00,44.0,34.5,30.02,SSE,157,0.0,2.0,69,0.00,,---,0.00,VWS V14.00,2013-03-09 22:59:00,
2013-03-09 18:01:00,43.9,34.8,30.02,SSE,157,2.0,12.0,70,0.00,,---,0.00,VWS V14.00,2013-03-09 23:01:00,
2013-03-09 18:02:00,44.0,34.9,30.02,South,169,2.0,12.0,70,0.00,,---,0.00,VWS V14.00,2013-03-09 23:02:00,
2013-03-09 18:03:00,44.0,35.2,30.02,SSE,163,3.0,12.0,71,0.00,,---,0.00,VWS V14.00,2013-03-09 23:03:00,
2013-03-09 18:04:00,44.0,35.2,30.02,SSE,151,3.0,12.0,71,0.00,,---,0.00,VWS V14.00,2013-03-09 23:04:00,
2013-03-09 18:07:00,44.0,34.9,30.02,South,178,3.0,12.0,70,0.00,,---,0.00,VWS V14.00,2013-03-09 23:07:00,
2013-03-09 18:09:00,43.9,34.8,30.02,South,175,9.0,12.0,70,0.00,,---,0.00,VWS V14.00,2013-03-09 23:09:00,
2013-03-09 18:11:00,43.9,34.8,30.02,South,175,2.0,12.0,70,0.00,,---,0.00,VWS V14.00,2013-03-09 23:11:00,
2013-03-09 18:14:00,44.0,34.9,30.02,South,173,2.0,12.0,70,0.00,,---,0.00,VWS V14.00,2013-03-09 23:14:00,
2013-03-09 18:15:00,44.0,35.2,30.03,South,173,1.0,12.0,71,0.00,,---,0.00,VWS V14.00,2013-03-09 23:15:00,
2013-03-09 18:16:00,44.0,35.2,30.03,South,179,0.0,12.0,71,0.00,,---,0.00,VWS V14.00,2013-03-09 23:16:00,
2013-03-09 18:17:00,44.0,35.2,30.03,South,176,3.0,12.0,71,0.00,,---,0.00,VWS V14.00,2013-03-09 23:17:00,
2013-03-09 18:20:00,44.0,35.2,30.03,South,173,4.0,12.0,71,0.00,,---,0.00,VWS V14.00,2013-03-09 23:20:00,
2013-03-09 18:21:00,43.9,34.8,30.03,South,174,5.0,12.0,70,0.00,,---,0.00,VWS V14.00,2013-03-09 23:21:00,
2013-03-09 18:23:00,43.9,34.8,30.03,SSW,192,1.0,12.0,70,0.00,,---,0.00,VWS V14.00,2013-03-09 23:23:00,
2013-03-09 18:26:00,43.9,35.1,30.02,South,177,6.0,12.0,71,0.00,,---,0.00,VWS V14.00,2013-03-09 23:26:00,
2013-03-09 18:27:00,43.9,34.8,30.02,South,184,11.0,12.0,70,0.00,,---,0.00,VWS V14.00,2013-03-09 23:27:00,
2013-03-09 18:28:00,43.8,34.7,30.02,SSE,160,10.0,12.0,70,0.00,,---,0.00,VWS V14.00,2013-03-09 23:28:00,
2013-03-09 18:31:00,43.8,34.7,30.02,SSW,194,4.0,11.0,70,0.00,,---,0.00,VWS V14.00,2013-03-09 23:31:00,
2013-03-09 18:32:00,43.8,35.0,30.02,South,190,3.0,11.0,71,0.00,,---,0.00,VWS V14.00,2013-03-09 23:32:00,
2013-03-09 18:33:00,43.8,35.0,30.02,South,184,2.0,11.0,71,0.00,,---,0.00,VWS V14.00,2013-03-09 23:33:00,
2013-03-09 18:34:00,43.8,35.0,30.02,South,183,7.0,11.0,71,0.00,,---,0.00,VWS V14.00,2013-03-09 23:34:00,
2013-03-09 18:36:00,43.8,35.0,30.02,SSE,165,10.0,12.0,71,0.00,,---,0.00,VWS V14.00,2013-03-09 23:36:00,
2013-03-09 18:38:00,43.7,34.9,30.02,South,172,2.0,13.0,71,0.00,,---,0.00,VWS V14.00,2013-03-09 23:38:00,
2013-03-09 18:39:00,43.7,34.9,30.02,South,187,4.0,13.0,71,0.00,,---,0.00,VWS V14.00,2013-03-09 23:39:00,
2013-03-09 18:40:00,43.7,35.3,30.02,SSE,153,6.0,13.0,72,0.00,,---,0.00,VWS V14.00,2013-03-09 23:40:00,
2013-03-09 18:41:00,43.7,34.9,30.02,SSE,167,7.0,13.0,71,0.00,,---,0.00,VWS V14.00,2013-03-09 23:41:00,
2013-03-09 18:43:00,43.7,35.3,30.02,South,171,0.0,13.0,72,0.00,,---,0.00,VWS V14.00,2013-03-09 23:43:00,
2013-03-09 18:44:00,43.7,35.3,30.02,South,170,5.0,13.0,72,0.00,,---,0.00,VWS V14.00,2013-03-09 23:44:00,
2013-03-09 18:46:00,43.6,34.8,30.03,South,178,3.0,13.0,71,0.00,,---,0.00,VWS V14.00,2013-03-09 23:46:00,
2013-03-09 18:47:00,43.6,35.2,30.03,South,180,5.0,13.0,72,0.00,,---,0.00,VWS V14.00,2013-03-09 23:47:00,
2013-03-09 18:50:00,43.4,35.0,30.03,South,183,3.0,13.0,72,0.00,,---,0.00,VWS V14.00,2013-03-09 23:50:00,
2013-03-09 18:52:00,43.4,35.0,30.03,South,179,4.0,13.0,72,0.00,,---,0.00,VWS V14.00,2013-03-09 23:52:00,
2013-03-09 18:53:00,43.4,35.0,30.03,South,182,5.0,13.0,72,0.00,,---,0.00,VWS V14.00,2013-03-09 23:53:00,
2013-03-09 18:55:00,43.4,35.3,30.03,South,172,3.0,13.0,73,0.00,,---,0.00,VWS V14.00,2013-03-09 23:55:00,
2013-03-09 18:58:00,43.4,35.7,30.03,South,176,3.0,13.0,74,0.00,,---,0.00,VWS V14.00,2013-03-09 23:58:00,
2013-03-09 19:00:00,43.4,35.0,30.03,South,176,2.0,6.0,72,0.00,,---,0.00,VWS V14.00,2013-03-10 00:00:00,
2013-03-09 19:01:00,43.4,35.0,30.03,South,173,3.0,6.0,72,0.00,,---,0.00,VWS V14.00,2013-03-10 00:01:00,
2013-03-09 19:03:00,43.3,35.2,30.03,South,173,2.0,6.0,73,0.00,,---,0.00,VWS V14.00,2013-03-10 00:03:00,
2013-03-09 19:05:00,43.2,34.8,30.03,South,169,6.0,9.0,72,0.00,,---,0.00,VWS V14.00,2013-03-10 00:05:00,
2013-03-09 19:08:00,43.1,35.0,30.03,South,180,2.0,9.0,73,0.00,,---,0.00,VWS V14.00,2013-03-10 00:08:00,
2013-03-09 19:09:00,43.1,35.0,30.03,South,180,2.0,9.0,73,0.00,,---,0.00,VWS V14.00,2013-03-10 00:09:00,
2013-03-09 19:13:00,43.1,35.0,30.02,South,186,2.0,9.0,73,0.00,,---,0.00,VWS V14.00,2013-03-10 00:13:00,
2013-03-09 19:14:00,43.1,35.4,30.01,SSE,157,3.0,9.0,74,0.00,,---,0.00,VWS V14.00,2013-03-10 00:14:00,
2013-03-09 19:16:00,43.1,35.0,30.01,SSE,156,4.0,10.0,73,0.00,,---,0.00,VWS V14.00,2013-03-10 00:16:00,
2013-03-09 19:18:00,43.1,35.0,30.01,South,173,2.0,10.0,73,0.00,,---,0.00,VWS V14.00,2013-03-10 00:18:00,
2013-03-09 19:20:00,43.1,35.0,30.01,SSE,165,3.0,10.0,73,0.00,,---,0.00,VWS V14.00,2013-03-10 00:20:00,
2013-03-09 19:21:00,43.1,35.4,30.01,South,173,1.0,10.0,74,0.00,,---,0.00,VWS V14.00,2013-03-10 00:21:00,
2013-03-09 19:22:00,43.1,35.4,30.01,South,173,1.0,10.0,74,0.00,,---,0.00,VWS V14.00,2013-03-10 00:22:00,
2013-03-09 19:24:00,43.1,35.7,30.01,SSE,156,2.0,10.0,75,0.00,,---,0.00,VWS V14.00,2013-03-10 00:24:00,
2013-03-09 19:26:00,43.1,35.4,30.00,SSE,148,3.0,10.0,74,0.00,,---,0.00,VWS V14.00,2013-03-10 00:26:00,
2013-03-09 19:27:00,43.0,35.0,30.00,SSE,148,2.0,10.0,73,0.00,,---,0.00,VWS V14.00,2013-03-10 00:27:00,
2013-03-09 19:28:00,43.0,35.0,30.00,SSE,150,3.0,10.0,73,0.00,,---,0.00,VWS V14.00,2013-03-10 00:28:00,
2013-03-09 19:29:00,42.9,35.2,30.00,SSE,158,3.0,6.0,74,0.00,,---,0.00,VWS V14.00,2013-03-10 00:29:00,
2013-03-09 19:31:00,42.9,35.2,30.01,South,191,5.0,10.0,74,0.00,,---,0.00,VWS V14.00,2013-03-10 00:31:00,
2013-03-09 19:33:00,42.9,35.2,30.00,SSW,192,6.0,10.0,74,0.00,,---,0.00,VWS V14.00,2013-03-10 00:33:00,
2013-03-09 19:34:00,42.9,35.5,30.00,SSE,153,2.0,10.0,75,0.00,,---,0.00,VWS V14.00,2013-03-10 00:34:00,
2013-03-09 19:35:00,43.0,35.6,30.00,South,188,8.0,10.0,75,0.00,,---,0.00,VWS V14.00,2013-03-10 00:35:00,
2013-03-09 19:38:00,43.0,36.0,30.00,South,188,3.0,10.0,76,0.00,,---,0.00,VWS V14.00,2013-03-10 00:38:00,
2013-03-09 19:39:00,43.0,35.6,30.00,South,188,2.0,10.0,75,0.00,,---,0.00,VWS V14.00,2013-03-10 00:39:00,
2013-03-09 19:43:00,43.1,36.1,30.00,SSE,167,3.0,10.0,76,0.00,,---,0.00,VWS V14.00,2013-03-10 00:43:00,
2013-03-09 19:44:00,43.1,36.1,30.00,South,177,4.0,10.0,76,0.00,,---,0.00,VWS V14.00,2013-03-10 00:44:00,
2013-03-09 19:45:00,43.0,36.0,30.00,South,184,5.0,10.0,76,0.00,,---,0.00,VWS V14.00,2013-03-10 00:45:00,
2013-03-09 19:48:00,43.1,36.1,30.00,South,175,3.0,10.0,76,0.00,,---,0.00,VWS V14.00,2013-03-10 00:48:00,
2013-03-09 19:49:00,43.1,36.4,30.00,SSE,148,4.0,10.0,77,0.00,,---,0.00,VWS V14.00,2013-03-10 00:49:00,
2013-03-09 19:50:00,43.0,36.0,30.00,SSE,153,3.0,10.0,76,0.00,,---,0.00,VWS V14.00,2013-03-10 00:50:00,
2013-03-09 19:54:00,42.9,36.2,30.00,South,176,3.0,10.0,77,0.00,,---,0.00,VWS V14.00,2013-03-10 00:54:00,
2013-03-09 19:55:00,42.9,36.2,30.00,South,174,3.0,10.0,77,0.00,,---,0.00,VWS V14.00,2013-03-10 00:55:00,
2013-03-09 19:56:00,43.0,36.3,30.00,SSE,168,3.0,10.0,77,0.00,,---,0.00,VWS V14.00,2013-03-10 00:56:00,
2013-03-09 20:00:00,43.1,36.7,30.00,South,186,11.0,11.0,78,0.00,,---,0.00,VWS V14.00,2013-03-10 01:00:00,
2013-03-09 20:01:00,43.1,36.7,30.00,South,175,5.0,11.0,78,0.00,,---,0.00,VWS V14.00,2013-03-10 01:01:00,
2013-03-09 20:03:00,43.0,36.3,30.00,South,183,4.0,12.0,77,0.00,,---,0.00,VWS V14.00,2013-03-10 01:03:00,
2013-03-09 20:06:00,43.1,36.7,30.00,SSE,164,2.0,12.0,78,0.00,,---,0.00,VWS V14.00,2013-03-10 01:06:00,
2013-03-09 20:07:00,43.2,36.8,30.00,South,173,2.0,12.0,78,0.00,,---,0.00,VWS V14.00,2013-03-10 01:07:00,
2013-03-09 20:08:00,43.2,36.8,30.00,SSE,157,10.0,12.0,78,0.00,,---,0.00,VWS V14.00,2013-03-10 01:08:00,
2013-03-09 20:11:00,43.2,36.5,30.00,SSE,157,6.0,12.0,77,0.00,,---,0.00,VWS V14.00,2013-03-10 01:11:00,
2013-03-09 20:12:00,43.2,36.5,30.00,SSE,161,2.0,12.0,77,0.00,,---,0.00,VWS V14.00,2013-03-10 01:12:00,
2013-03-09 20:13:00,43.2,36.8,30.00,SSW,192,6.0,12.0,78,0.00,,---,0.00,VWS V14.00,2013-03-10 01:13:00,
2013-03-09 20:16:00,43.3,36.6,29.99,South,176,5.0,12.0,77,0.00,,---,0.00,VWS V14.00,2013-03-10 01:16:00,
2013-03-09 20:18:00,43.3,36.9,29.99,South,187,6.0,12.0,78,0.00,,---,0.00,VWS V14.00,2013-03-10 01:18:00,
2013-03-09 20:19:00,43.3,36.6,29.99,South,182,8.0,12.0,77,0.00,,---,0.00,VWS V14.00,2013-03-10 01:19:00,
2013-03-09 20:20:00,43.3,36.6,29.99,South,176,5.0,12.0,77,0.00,,---,0.00,VWS V14.00,2013-03-10 01:20:00,
2013-03-09 20:21:00,43.3,36.6,29.99,South,175,3.0,12.0,77,0.00,,---,0.00,VWS V14.00,2013-03-10 01:21:00,
2013-03-09 20:23:00,43.4,36.7,29.99,SSE,166,7.0,12.0,77,0.00,,---,0.00,VWS V14.00,2013-03-10 01:23:00,
2013-03-09 20:24:00,43.4,36.7,29.99,SSE,162,6.0,12.0,77,0.00,,---,0.00,VWS V14.00,2013-03-10 01:24:00,
2013-03-09 20:25:00,43.4,37.0,29.99,South,180,9.0,12.0,78,0.00,,---,0.00,VWS V14.00,2013-03-10 01:25:00,
2013-03-09 20:28:00,43.5,37.1,29.99,South,180,5.0,7.0,78,0.00,,---,0.00,VWS V14.00,2013-03-10 01:28:00,
2013-03-09 20:29:00,43.6,37.2,29.99,South,178,2.0,7.0,78,0.00,,---,0.00,VWS V14.00,2013-03-10 01:29:00,
2013-03-09 20:30:00,43.6,37.2,29.99,South,175,7.0,12.0,78,0.00,,---,0.00,VWS V14.00,2013-03-10 01:30:00,
2013-03-09 20:32:00,43.6,37.2,29.99,South,179,9.0,13.0,78,0.00,,---,0.00,VWS V14.00,2013-03-10 01:32:00,
2013-03-09 20:34:00,43.6,36.9,29.99,South,188,10.0,13.0,77,0.00,,---,0.00,VWS V14.00,2013-03-10 01:34:00,
2013-03-09 20:35:00,43.6,36.9,29.99,SSW,194,7.0,13.0,77,0.00,,---,0.00,VWS V14.00,2013-03-10 01:35:00,
2013-03-09 20:36:00,43.6,36.9,29.99,South,175,2.0,13.0,77,0.00,,---,0.00,VWS V14.00,2013-03-10 01:36:00,
2013-03-09 20:38:00,43.6,36.5,29.99,South,173,9.0,14.0,76,0.00,,---,0.00,VWS V14.00,2013-03-10 01:38:00,
2013-03-09 20:40:00,43.6,36.9,29.99,South,182,4.0,15.0,77,0.00,,---,0.00,VWS V14.00,2013-03-10 01:40:00,
2013-03-09 20:41:00,43.6,36.5,29.99,SSW,200,12.0,15.0,76,0.00,,---,0.00,VWS V14.00,2013-03-10 01:41:00,
2013-03-09 20:43:00,43.6,36.9,29.99,South,178,2.0,15.0,77,0.00,,---,0.00,VWS V14.00,2013-03-10 01:43:00,
2013-03-09 20:44:00,43.6,36.9,29.99,South,176,7.0,15.0,77,0.00,,---,0.00,VWS V14.00,2013-03-10 01:44:00,
2013-03-09 20:45:00,43.6,36.9,29.99,South,180,2.0,15.0,77,0.00,,---,0.00,VWS V14.00,2013-03-10 01:45:00,
2013-03-09 20:47:00,43.6,36.9,29.99,South,175,6.0,15.0,77,0.00,,---,0.00,VWS V14.00,2013-03-10 01:47:00,
2013-03-09 20:48:00,43.6,36.5,29.99,SSE,160,2.0,15.0,76,0.00,,---,0.00,VWS V14.00,2013-03-10 01:48:00,
2013-03-09 20:50:00,43.7,37.0,29.99,SSE,159,4.0,15.0,77,0.00,,---,0.00,VWS V14.00,2013-03-10 01:50:00,
2013-03-09 20:52:00,43.8,37.4,29.99,South,184,5.0,15.0,78,0.00,,---,0.00,VWS V14.00,2013-03-10 01:52:00,
2013-03-09 20:55:00,43.8,37.4,29.98,South,180,3.0,15.0,78,0.00,,---,0.00,VWS V14.00,2013-03-10 01:55:00,
2013-03-09 20:57:00,43.8,37.1,29.98,SSE,167,3.0,15.0,77,0.00,,---,0.00,VWS V14.00,2013-03-10 01:57:00,
2013-03-09 20:58:00,43.8,37.1,29.98,South,188,0.0,1.0,77,0.00,,---,0.00,VWS V14.00,2013-03-10 01:58:00,
2013-03-09 21:00:00,43.6,36.9,29.98,South,176,3.0,6.0,77,0.00,,---,0.00,VWS V14.00,2013-03-10 02:00:00,
2013-03-09 21:01:00,43.6,36.9,29.98,South,191,6.0,6.0,77,0.00,,---,0.00,VWS V14.00,2013-03-10 02:01:00,
2013-03-09 21:02:00,43.6,36.5,29.98,South,172,2.0,6.0,76,0.00,,---,0.00,VWS V14.00,2013-03-10 02:02:00,
2013-03-09 21:06:00,43.7,37.3,29.98,South,179,3.0,10.0,78,0.00,,---,0.00,VWS V14.00,2013-03-10 02:06:00,
2013-03-09 21:07:00,43.7,37.3,29.98,South,190,9.0,13.0,78,0.00,,---,0.00,VWS V14.00,2013-03-10 02:07:00,
2013-03-09 21:08:00,43.7,37.3,29.98,SSE,159,7.0,13.0,78,0.00,,---,0.00,VWS V14.00,2013-03-10 02:08:00,
2013-03-09 21:09:00,43.7,37.0,29.98,South,174,2.0,13.0,77,0.00,,---,0.00,VWS V14.00,2013-03-10 02:09:00,
2013-03-09 21:12:00,43.6,36.9,29.97,South,178,4.0,13.0,77,0.00,,---,0.00,VWS V14.00,2013-03-10 02:12:00,
2013-03-09 21:13:00,43.6,36.9,29.97,SSE,167,3.0,13.0,77,0.00,,---,0.00,VWS V14.00,2013-03-10 02:13:00,
2013-03-09 21:14:00,43.6,36.9,29.97,South,185,4.0,13.0,77,0.00,,---,0.00,VWS V14.00,2013-03-10 02:14:00,
2013-03-09 21:16:00,43.6,36.9,29.97,South,178,4.0,13.0,77,0.00,,---,0.00,VWS V14.00,2013-03-10 02:16:00,
2013-03-09 21:19:00,43.6,37.2,29.97,South,182,4.0,13.0,78,0.00,,---,0.00,VWS V14.00,2013-03-10 02:19:00,
2013-03-09 21:20:00,43.6,36.9,29.97,SSW,192,6.0,13.0,77,0.00,,---,0.00,VWS V14.00,2013-03-10 02:20:00,
2013-03-09 21:21:00,43.6,36.9,29.97,South,184,2.0,13.0,77,0.00,,---,0.00,VWS V14.00,2013-03-10 02:21:00,
2013-03-09 21:26:00,43.8,37.4,29.97,SSE,160,5.0,13.0,78,0.00,,---,0.00,VWS V14.00,2013-03-10 02:26:00,
2013-03-09 21:27:00,43.8,37.7,29.97,South,176,4.0,14.0,79,0.00,,---,0.00,VWS V14.00,2013-03-10 02:27:00,
2013-03-09 21:28:00,43.8,37.4,29.97,South,176,4.0,14.0,78,0.00,,---,0.00,VWS V14.00,2013-03-10 02:28:00,
2013-03-09 21:31:00,43.8,37.4,29.97,SSE,168,2.0,10.0,78,0.00,,---,0.00,VWS V14.00,2013-03-10 02:31:00,
2013-03-09 21:33:00,43.8,37.4,29.97,SSE,155,3.0,10.0,78,0.00,,---,0.00,VWS V14.00,2013-03-10 02:33:00,
2013-03-09 21:36:00,43.8,37.4,29.97,South,170,4.0,10.0,78,0.00,,---,0.00,VWS V14.00,2013-03-10 02:36:00,
2013-03-09 21:38:00,43.9,37.5,29.97,South,180,3.0,14.0,78,0.00,,---,0.00,VWS V14.00,2013-03-10 02:38:00,
2013-03-09 21:39:00,43.8,37.4,29.96,South,175,2.0,14.0,78,0.00,,---,0.00,VWS V14.00,2013-03-10 02:39:00,
2013-03-09 21:41:00,43.8,37.4,29.96,South,178,4.0,14.0,78,0.00,,---,0.00,VWS V14.00,2013-03-10 02:41:00,
2013-03-09 21:42:00,43.8,37.4,29.96,South,171,3.0,14.0,78,0.00,,---,0.00,VWS V14.00,2013-03-10 02:42:00,
2013-03-09 21:44:00,43.9,37.8,29.96,South,179,7.0,14.0,79,0.00,,---,0.00,VWS V14.00,2013-03-10 02:44:00,
2013-03-09 21:45:00,43.8,37.4,29.96,SSE,160,3.0,14.0,78,0.00,,---,0.00,VWS V14.00,2013-03-10 02:45:00,
2013-03-09 21:47:00,43.7,37.3,29.97,South,175,2.0,14.0,78,0.00,,---,0.00,VWS V14.00,2013-03-10 02:47:00,
2013-03-09 21:48:00,43.7,37.3,29.96,South,172,3.0,14.0,78,0.00,,---,0.00,VWS V14.00,2013-03-10 02:48:00,
2013-03-09 21:50:00,43.7,37.6,29.96,South,187,5.0,14.0,79,0.00,,---,0.00,VWS V14.00,2013-03-10 02:50:00,
2013-03-09 21:51:00,43.7,37.6,29.96,South,185,2.0,14.0,79,0.00,,---,0.00,VWS V14.00,2013-03-10 02:51:00,
2013-03-09 21:52:00,43.7,37.6,29.96,South,177,5.0,14.0,79,0.00,,---,0.00,VWS V14.00,2013-03-10 02:52:00,
2013-03-09 21:55:00,43.7,37.6,29.97,South,190,4.0,14.0,79,0.00,,---,0.00,VWS V14.00,2013-03-10 02:55:00,
2013-03-09 21:56:00,43.7,37.6,29.97,South,185,4.0,14.0,79,0.00,,---,0.00,VWS V14.00,2013-03-10 02:56:00,
2013-03-09 22:00:00,43.6,37.2,29.96,South,175,5.0,6.0,78,0.00,,---,0.00,VWS V14.00,2013-03-10 03:00:00,
2013-03-09 22:02:00,43.5,37.1,29.96,South,177,5.0,8.0,78,0.00,,---,0.00,VWS V14.00,2013-03-10 03:02:00,
2013-03-09 22:04:00,43.5,37.1,29.96,South,173,3.0,8.0,78,0.00,,---,0.00,VWS V14.00,2013-03-10 03:04:00,
2013-03-09 22:06:00,43.6,37.5,29.96,South,189,3.0,8.0,79,0.00,,---,0.00,VWS V14.00,2013-03-10 03:06:00,
2013-03-09 22:08:00,43.5,37.1,29.96,South,183,4.0,9.0,78,0.00,,---,0.00,VWS V14.00,2013-03-10 03:08:00,
2013-03-09 22:09:00,43.6,37.2,29.96,South,188,1.0,9.0,78,0.00,,---,0.00,VWS V14.00,2013-03-10 03:09:00,
2013-03-09 22:12:00,43.4,37.0,29.96,South,185,2.0,9.0,78,0.00,,---,0.00,VWS V14.00,2013-03-10 03:12:00,
2013-03-09 22:14:00,43.4,37.0,29.96,South,184,3.0,9.0,78,0.00,,---,0.00,VWS V14.00,2013-03-10 03:14:00,
2013-03-09 22:17:00,43.4,37.0,29.97,South,182,2.0,9.0,78,0.00,,---,0.00,VWS V14.00,2013-03-10 03:17:00,
2013-03-09 22:20:00,43.3,36.9,29.96,South,170,3.0,9.0,78,0.00,,---,0.00,VWS V14.00,2013-03-10 03:20:00,
2013-03-09 22:21:00,43.4,37.0,29.96,South,171,3.0,9.0,78,0.00,,---,0.00,VWS V14.00,2013-03-10 03:21:00,
2013-03-09 22:22:00,43.4,37.0,29.96,South,175,3.0,9.0,78,0.00,,---,0.00,VWS V14.00,2013-03-10 03:22:00,
2013-03-09 22:25:00,43.3,36.9,29.96,SSE,165,2.0,9.0,78,0.00,,---,0.00,VWS V14.00,2013-03-10 03:25:00,
2013-03-09 22:27:00,43.3,36.9,29.95,South,173,2.0,9.0,78,0.00,,---,0.00,VWS V14.00,2013-03-10 03:27:00,
2013-03-09 22:28:00,43.3,36.9,29.96,South,172,2.0,9.0,78,0.00,,---,0.00,VWS V14.00,2013-03-10 03:28:00,
2013-03-09 22:30:00,43.3,37.2,29.96,South,182,1.0,5.0,79,0.00,,---,0.00,VWS V14.00,2013-03-10 03:30:00,
2013-03-09 22:33:00,43.4,37.3,29.95,South,184,3.0,9.0,79,0.00,,---,0.00,VWS V14.00,2013-03-10 03:33:00,
2013-03-09 22:34:00,43.4,37.3,29.95,South,184,4.0,9.0,79,0.00,,---,0.00,VWS V14.00,2013-03-10 03:34:00,
2013-03-09 22:35:00,43.4,37.3,29.95,South,184,2.0,9.0,79,0.00,,---,0.00,VWS V14.00,2013-03-10 03:35:00,
2013-03-09 22:39:00,43.4,37.3,29.96,South,177,3.0,9.0,79,0.00,,---,0.00,VWS V14.00,2013-03-10 03:39:00,
2013-03-09 22:40:00,43.4,37.0,29.96,South,177,1.0,9.0,78,0.00,,---,0.00,VWS V14.00,2013-03-10 03:40:00,
2013-03-09 22:43:00,43.3,36.9,29.96,South,180,7.0,9.0,78,0.00,,---,0.00,VWS V14.00,2013-03-10 03:43:00,
2013-03-09 22:45:00,43.3,36.9,29.96,South,176,2.0,9.0,78,0.00,,---,0.00,VWS V14.00,2013-03-10 03:45:00,
2013-03-09 22:47:00,43.4,37.3,29.95,South,171,0.0,9.0,79,0.00,,---,0.00,VWS V14.00,2013-03-10 03:47:00,
2013-03-09 22:48:00,43.5,37.4,29.95,South,178,4.0,9.0,79,0.00,,---,0.00,VWS V14.00,2013-03-10 03:48:00,
2013-03-09 22:50:00,43.6,37.5,29.95,South,184,3.0,9.0,79,0.00,,---,0.00,VWS V14.00,2013-03-10 03:50:00,
2013-03-09 22:52:00,43.6,37.5,29.95,South,178,2.0,9.0,79,0.00,,---,0.00,VWS V14.00,2013-03-10 03:52:00,
2013-03-09 22:53:00,43.7,37.6,29.95,South,178,3.0,9.0,79,0.00,,---,0.00,VWS V14.00,2013-03-10 03:53:00,
2013-03-09 22:55:00,43.7,38.0,29.95,South,171,4.0,9.0,80,0.00,,---,0.00,VWS V14.00,2013-03-10 03:55:00,
2013-03-09 22:57:00,43.8,38.0,29.95,South,184,0.0,9.0,80,0.00,,---,0.00,VWS V14.00,2013-03-10 03:57:00,
2013-03-09 22:58:00,43.9,38.1,29.95,South,183,2.0,9.0,80,0.00,,---,0.00,VWS V14.00,2013-03-10 03:58:00,
2013-03-09 22:59:00,43.9,38.1,29.95,South,182,2.0,5.0,80,0.00,,---,0.00,VWS V14.00,2013-03-10 03:59:00,
2013-03-09 23:02:00,43.9,37.8,29.95,South,183,4.0,6.0,79,0.00,,---,0.00,VWS V14.00,2013-03-10 04:02:00,
2013-03-09 23:04:00,43.8,37.7,29.95,South,182,2.0,6.0,79,0.00,,---,0.00,VWS V14.00,2013-03-10 04:04:00,
2013-03-09 23:05:00,43.8,37.4,29.95,South,184,2.0,6.0,78,0.00,,---,0.00,VWS V14.00,2013-03-10 04:05:00,
2013-03-09 23:07:00,43.8,37.4,29.95,South,180,0.0,6.0,78,0.00,,---,0.00,VWS V14.00,2013-03-10 04:07:00,
2013-03-09 23:09:00,43.8,37.7,29.95,South,182,1.0,7.0,79,0.00,,---,0.00,VWS V14.00,2013-03-10 04:09:00,
2013-03-09 23:10:00,43.8,37.7,29.95,South,182,2.0,7.0,79,0.00,,---,0.00,VWS V14.00,2013-03-10 04:10:00,
2013-03-09 23:12:00,43.9,37.8,29.95,SSW,192,3.0,7.0,79,0.00,,---,0.00,VWS V14.00,2013-03-10 04:12:00,
2013-03-09 23:15:00,44.0,37.9,29.95,South,179,4.0,7.0,79,0.00,,---,0.00,VWS V14.00,2013-03-10 04:15:00,
2013-03-09 23:16:00,44.0,37.9,29.94,South,171,2.0,7.0,79,0.00,,---,0.00,VWS V14.00,2013-03-10 04:16:00,
2013-03-09 23:18:00,44.0,37.9,29.94,South,174,4.0,7.0,79,0.00,,---,0.00,VWS V14.00,2013-03-10 04:18:00,
2013-03-09 23:21:00,44.0,37.9,29.94,South,173,4.0,9.0,79,0.00,,---,0.00,VWS V14.00,2013-03-10 04:21:00,
2013-03-09 23:22:00,44.1,38.3,29.94,South,178,3.0,9.0,80,0.00,,---,0.00,VWS V14.00,2013-03-10 04:22:00,
2013-03-09 23:23:00,44.1,38.3,29.94,South,175,1.0,9.0,80,0.00,,---,0.00,VWS V14.00,2013-03-10 04:23:00,
2013-03-09 23:24:00,44.1,38.3,29.94,South,173,2.0,9.0,80,0.00,,---,0.00,VWS V14.00,2013-03-10 04:24:00,
2013-03-09 23:26:00,44.0,37.9,29.94,South,175,4.0,9.0,79,0.00,,---,0.00,VWS V14.00,2013-03-10 04:26:00,
2013-03-09 23:27:00,44.0,38.2,29.94,South,180,4.0,9.0,80,0.00,,---,0.00,VWS V14.00,2013-03-10 04:27:00,
2013-03-09 23:28:00,44.1,38.3,29.94,South,175,3.0,3.0,80,0.00,,---,0.00,VWS V14.00,2013-03-10 04:28:00,
2013-03-09 23:29:00,44.1,38.3,29.94,South,178,3.0,4.0,80,0.00,,---,0.00,VWS V14.00,2013-03-10 04:29:00,
2013-03-09 23:31:00,44.1,38.3,29.94,South,185,2.0,7.0,80,0.00,,---,0.00,VWS V14.00,2013-03-10 04:31:00,
2013-03-09 23:34:00,44.0,38.2,29.94,South,183,4.0,7.0,80,0.00,,---,0.00,VWS V14.00,2013-03-10 04:34:00,
2013-03-09 23:35:00,44.0,38.2,29.94,South,175,1.0,7.0,80,0.00,,---,0.00,VWS V14.00,2013-03-10 04:35:00,
2013-03-09 23:38:00,43.9,38.1,29.93,South,184,0.0,7.0,80,0.00,,---,0.00,VWS V14.00,2013-03-10 04:38:00,
2013-03-09 23:39:00,43.9,38.1,29.93,South,184,2.0,7.0,80,0.00,,---,0.00,VWS V14.00,2013-03-10 04:39:00,
2013-03-09 23:40:00,43.9,38.1,29.93,South,170,3.0,7.0,80,0.00,,---,0.00,VWS V14.00,2013-03-10 04:40:00,
2013-03-09 23:41:00,43.9,38.1,29.93,SSE,163,4.0,7.0,80,0.00,,---,0.00,VWS V14.00,2013-03-10 04:41:00,
2013-03-09 23:44:00,43.8,38.0,29.93,South,182,5.0,7.0,80,0.00,,---,0.00,VWS V14.00,2013-03-10 04:44:00,
2013-03-09 23:45:00,43.8,38.0,29.93,South,180,3.0,7.0,80,0.00,,---,0.00,VWS V14.00,2013-03-10 04:45:00,
2013-03-09 23:46:00,43.8,38.0,29.93,South,183,5.0,7.0,80,0.00,,---,0.00,VWS V14.00,2013-03-10 04:46:00,
2013-03-09 23:47:00,43.7,38.0,29.93,South,180,3.0,7.0,80,0.00,,---,0.00,VWS V14.00,2013-03-10 04:47:00,
2013-03-09 23:50:00,43.6,37.8,29.93,South,179,1.0,7.0,80,0.00,,---,0.00,VWS V14.00,2013-03-10 04:50:00,
2013-03-09 23:51:00,43.6,37.8,29.93,South,179,0.0,7.0,80,0.00,,---,0.00,VWS V14.00,2013-03-10 04:51:00,
2013-03-09 23:52:00,43.5,37.4,29.93,South,179,1.0,7.0,79,0.00,,---,0.00,VWS V14.00,2013-03-10 04:52:00,
2013-03-09 23:55:00,43.4,37.3,29.93,South,178,2.0,7.0,79,0.00,,---,0.00,VWS V14.00,2013-03-10 04:55:00,
2013-03-09 23:56:00,43.4,37.7,29.93,South,180,1.0,7.0,80,0.00,,---,0.00,VWS V14.00,2013-03-10 04:56:00,
2013-03-09 23:57:00,43.4,37.7,29.93,South,179,1.0,7.0,80,0.00,,---,0.00,VWS V14.00,2013-03-10 04:57:00,
2013-03-09 23:58:00,43.3,37.6,29.93,South,179,2.0,7.0,80,0.00,,---,0.00,VWS V14.00,2013-03-10 04:58:00,